WA4BPS Weather Reports


time (UTC)temp
F
wind
direction
speed
knots
gust
knots
rain 1hr
in
rain 24hr
in
rain mn
in
humidity
%
barometer
mb
20260507135130 51 288 10.4 17.4 0.00 0.00 0.00 100 1010.6
20260507135029 51 295 11.3 17.4 0.00 0.00 0.00 100 1010.6
20260507134926 51 285 9.6 17.4 0.00 0.00 0.00 100 1010.6
20260507134825 51 304 12.2 17.4 0.00 0.00 0.00 100 1010.6
20260507134736 51 326 8.7 16.5 0.00 0.00 0.00 100 1010.6
20260507134646 51 333 9.6 16.5 0.00 0.00 0.00 100 1010.6
20260507134524 51 284 9.6 16.5 0.00 0.00 0.00 100 1010.6
20260507134442 51 301 8.7 16.5 0.00 0.00 0.00 100 1010.6
20260507134341 51 80 11.3 16.5 0.00 0.00 0.00 100 1010.2
20260507134238 51 275 8.7 14.8 0.00 0.00 0.00 100 1010.2
20260507134138 51 24 7.8 14.8 0.00 0.00 0.00 100 1010.2
20260507134056 51 330 10.4 14.8 0.00 0.00 0.00 100 1010.2
20260507133938 51 301 11.3 14.8 0.00 0.00 0.00 100 1010.2
20260507133836 51 329 9.6 14.8 0.00 0.00 0.00 100 1010.2
20260507133736 51 114 9.6 14.8 0.00 0.00 0.00 100 1010.2
20260507133654 51 329 9.6 16.5 0.00 0.00 0.00 100 1010.2
20260507133532 51 309 9.6 17.4 0.00 0.00 0.00 100 1010.2
20260507133432 51 306 12.2 17.4 0.00 0.00 0.00 100 1010.2
20260507133350 51 312 11.3 17.4 0.00 0.00 0.00 100 1010.2
20260507133232 51 248 9.6 17.4 0.00 0.00 0.00 100 1010.2
20260507133202 51 136 7.0 17.4 0.00 0.00 0.00 100 1010.2
20260507133039 51 213 8.7 17.4 0.00 0.00 0.00 100 1010.2
20260507132938 51 330 10.4 17.4 0.00 0.00 0.00 100 1010.2
20260507132837 51 323 11.3 17.4 0.00 0.00 0.00 100 1010.1
20260507132735 51 332 13.9 17.4 0.00 0.00 0.00 100 1010.1
20260507132635 51 312 12.2 17.4 0.00 0.00 0.00 100 1010.1
20260507132537 51 289 9.6 17.4 0.00 0.00 0.00 100 1010.1
20260507132435 51 308 10.4 17.4 0.00 0.00 0.00 100 1010.1
20260507132333 51 305 14.8 17.4 0.00 0.00 0.00 100 1010.1
20260507132232 51 328 10.4 17.4 0.00 0.00 0.00 100 1010.1
20260507132130 51 318 12.2 16.5 0.00 0.00 0.00 100 1010.1
20260507132029 51 302 11.3 16.5 0.00 0.00 0.00 100 1010.1
20260507131947 51 294 10.4 16.5 0.00 0.00 0.00 100 1010.1
20260507131831 51 299 9.6 16.5 0.00 0.00 0.00 100 1010.1
20260507131729 51 312 12.2 16.5 0.00 0.00 0.00 100 1010.1
20260507131659 51 326 12.2 16.5 0.00 0.00 0.00 100 1010.1
20260507131537 51 335 12.2 16.5 0.00 0.00 0.00 100 1010.1
20260507131434 51 251 10.4 16.5 0.00 0.00 0.00 100 1010.1
20260507131332 51 313 9.6 16.5 0.00 0.00 0.00 100 1009.9
20260507131231 51 305 10.4 16.5 0.00 0.00 0.00 100 1009.9
20260507131149 51 305 7.0 16.5 0.00 0.00 0.00 100 1009.9
20260507131034 51 315 9.6 16.5 0.00 0.00 0.00 100 1009.9
20260507130952 51 323 9.6 16.5 0.00 0.00 0.00 100 1009.9
20260507130830 51 304 9.6 16.5 0.00 0.00 0.00 100 1009.9
20260507130728 51 329 9.6 16.5 0.00 0.00 0.00 100 1009.9
20260507130647 51 284 11.3 16.5 0.00 0.00 0.00 100 1009.9
20260507130545 51 356 11.3 16.5 0.00 0.00 0.00 100 1009.9
20260507130503 51 274 11.3 16.5 0.00 0.00 0.00 100 1009.9
20260507130340 51 280 11.3 16.5 0.00 0.00 0.00 100 1009.9
20260507130237 51 254 10.4 16.5 0.00 0.00 0.00 100 1009.9
20260507130147 51 329 12.2 16.5 0.00 0.00 0.00 100 1009.9
20260507130025 51 325 13.9 17.4 0.00 0.00 0.00 100 1009.9
20260507125947 51 328 10.4 17.4 0.00 0.00 0.00 100 1009.9
20260507125825 51 332 9.6 17.4 0.00 0.00 0.00 100 1010.1
20260507125724 50 315 9.6 17.4 0.00 0.00 0.00 100 1010.1
20260507125643 51 332 8.7 17.4 0.00 0.00 0.00 100 1010.1
20260507125541 50 332 10.4 17.4 0.00 0.00 0.00 100 1010.1
20260507125443 50 330 11.3 17.4 0.00 0.00 0.00 100 1010.1
20260507125342 50 319 10.4 17.4 0.00 0.00 0.00 100 1010.1
20260507125300 50 328 13.0 17.4 0.00 0.00 0.00 100 1010.1
20260507125158 51 329 14.8 17.4 0.00 0.00 0.00 100 1010.1
20260507125055 50 237 9.6 17.4 0.00 0.00 0.00 100 1010.1
20260507124933 50 315 10.4 17.4 0.00 0.00 0.00 100 1010.1
20260507124831 51 287 11.3 17.4 0.00 0.00 0.00 100 1010.1
20260507124741 51 315 10.4 17.4 0.00 0.00 0.00 100 1010.1
20260507124651 51 319 10.4 17.4 0.00 0.00 0.00 100 1010.1
20260507124534 51 278 13.0 17.4 0.00 0.00 0.00 100 1010.1
20260507124433 51 328 13.0 17.4 0.00 0.00 0.00 100 1010.1
20260507124332 51 313 9.6 16.5 0.00 0.00 0.00 100 1009.7
20260507124230 51 316 11.3 16.5 0.00 0.00 0.00 100 1009.7
20260507124132 51 319 12.2 16.5 0.00 0.00 0.00 100 1009.7
20260507124029 51 291 10.4 16.5 0.00 0.00 0.00 100 1009.7
20260507123929 51 260 7.8 16.5 0.00 0.00 0.00 100 1009.7
20260507123832 51 267 11.3 16.5 0.00 0.00 0.00 100 1009.7
20260507123732 51 208 12.2 17.4 0.00 0.00 0.00 100 1009.7
20260507123630 51 282 8.7 17.4 0.00 0.00 0.00 100 1009.7
20260507123531 51 329 7.8 17.4 0.00 0.00 0.00 100 1009.7
20260507123430 51 237 9.6 17.4 0.00 0.00 0.00 100 1009.7
20260507123328 51 270 10.4 17.4 0.00 0.00 0.00 100 1009.7
20260507123242 51 285 7.8 17.4 0.00 0.00 0.00 100 1009.7
20260507123152 51 312 10.4 17.4 0.00 0.00 0.00 100 1009.7
20260507123029 51 253 9.6 17.4 0.00 0.00 0.00 100 1009.7
20260507122928 51 264 11.3 18.2 0.00 0.00 0.00 100 1009.7
20260507122827 51 188 14.8 18.2 0.00 0.00 0.00 100 1009.7
20260507122729 51 285 13.0 18.2 0.00 0.00 0.00 100 1009.7
20260507122629 51 208 11.3 18.2 0.00 0.00 0.00 100 1009.7
20260507122531 51 320 13.0 18.2 0.00 0.00 0.00 100 1009.7
20260507122429 51 308 10.4 18.2 0.00 0.00 0.00 100 1009.7
20260507122328 51 326 12.2 18.2 0.00 0.00 0.00 100 1009.7
20260507122250 51 261 13.9 18.2 0.00 0.00 0.00 100 1009.7
20260507122149 51 312 13.0 18.2 0.00 0.00 0.00 100 1009.7
20260507122026 51 271 13.9 17.4 0.00 0.00 0.00 100 1009.7
20260507121945 51 236 10.4 17.4 0.00 0.00 0.00 100 1009.7
20260507121824 51 282 11.3 17.4 0.00 0.00 0.00 100 1009.7
20260507121728 51 326 11.3 17.4 0.00 0.00 0.00 100 1009.7
20260507121658 51 298 11.3 17.4 0.00 0.00 0.00 100 1009.7
20260507121535 51 320 7.8 17.4 0.00 0.00 0.00 100 1009.7
20260507121436 51 237 9.6 17.4 0.00 0.00 0.00 100 1009.7
20260507121334 51 280 13.0 17.4 0.00 0.00 0.00 100 1009.3
20260507121254 51 281 11.3 17.4 0.00 0.00 0.00 99 1009.3
20260507121152 51 328 11.3 17.4 0.00 0.00 0.00 99 1009.3
20260507121030 51 233 11.3 17.4 0.00 0.00 0.00 99 1009.3
20260507120932 51 220 12.2 17.4 0.00 0.00 0.00 99 1009.3
20260507120853 51 104 8.7 17.4 0.00 0.00 0.00 99 1009.3
20260507120750 51 312 12.2 17.4 0.00 0.00 0.00 99 1009.3
20260507120628 51 299 11.3 17.4 0.00 0.00 0.00 99 1009.3
20260507120526 51 152 11.3 17.4 0.00 0.00 0.00 99 1009.3
20260507120444 51 246 11.3 18.2 0.00 0.00 0.00 99 1009.3
20260507120343 51 305 11.3 18.2 0.00 0.00 0.00 99 1009.3
20260507120232 51 326 11.3 18.2 0.00 0.00 0.00 99 1009.3
20260507120147 51 274 9.6 18.2 0.00 0.00 0.00 99 1009.3
20260507120043 51 312 9.6 18.2 0.00 0.00 0.00 99 1009.3
20260507115942 51 233 12.2 18.2 0.00 0.00 0.00 99 1009.3
20260507115901 51 260 13.0 18.2 0.00 0.00 0.00 99 1009.0
20260507115738 51 247 11.3 18.2 0.00 0.00 0.00 99 1009.0
20260507115657 51 200 12.2 18.2 0.00 0.00 0.00 99 1009.0
20260507115535 51 299 11.3 17.4 0.00 0.00 0.00 99 1009.0
20260507115433 51 236 10.4 17.4 0.00 0.00 0.00 99 1009.0
20260507115337 51 176 10.4 17.4 0.00 0.00 0.00 99 1009.0
20260507115234 51 287 13.0 17.4 0.00 0.00 0.00 99 1009.0
20260507115133 51 294 10.4 17.4 0.00 0.00 0.00 99 1009.0
20260507115032 51 325 11.3 17.4 0.00 0.00 0.00 99 1009.0
20260507114930 51 278 13.9 17.4 0.00 0.00 0.00 99 1009.0
20260507114830 51 291 14.8 17.4 0.00 0.00 0.00 99 1009.0
20260507114738 51 309 11.3 17.4 0.00 0.00 0.00 99 1009.0
20260507114651 51 325 12.2 17.4 0.00 0.00 0.00 99 1009.0
20260507114530 51 229 12.2 17.4 0.00 0.00 0.00 99 1009.0
20260507114429 51 243 11.3 16.5 0.00 0.00 0.00 99 1009.0
20260507114348 51 316 10.4 16.5 0.00 0.00 0.00 99 1009.2
20260507114245 51 326 10.4 16.5 0.00 0.00 0.00 99 1009.2
20260507114144 51 332 10.4 16.5 0.00 0.00 0.00 99 1009.2
20260507114104 51 325 10.4 16.5 0.00 0.00 0.00 99 1009.2
20260507114001 51 264 10.4 16.5 0.00 0.00 0.00 99 1009.2
20260507113838 51 315 13.0 16.5 0.00 0.00 0.00 99 1009.2
20260507113741 51 328 11.3 16.5 0.00 0.00 0.00 99 1009.2
20260507113639 51 313 11.3 16.5 0.00 0.00 0.00 99 1009.2
20260507113539 51 216 12.2 16.5 0.00 0.00 0.00 99 1009.2
20260507113437 51 326 8.7 16.5 0.00 0.00 0.00 99 1009.2
20260507113335 51 301 11.3 16.5 0.00 0.00 0.00 99 1009.2
20260507113253 51 323 7.8 16.5 0.00 0.00 0.00 99 1009.2
20260507113225 51 320 9.6 17.4 0.00 0.00 0.00 99 1009.2
20260507113040 51 309 11.3 17.4 0.00 0.00 0.00 99 1009.2
20260507112924 51 203 10.4 17.4 0.00 0.00 0.00 99 1009.2
20260507112843 51 271 9.6 17.4 0.00 0.00 0.00 99 1008.7
20260507112801 51 326 10.4 17.4 0.00 0.00 0.00 99 1008.7
20260507112640 51 325 11.3 17.4 0.00 0.00 0.00 99 1008.7
20260507112539 51 282 12.2 17.4 0.00 0.00 0.00 99 1008.7
20260507112438 51 308 12.2 17.4 0.00 0.00 0.00 99 1008.7
20260507112340 51 280 11.3 17.4 0.00 0.00 0.00 99 1008.7
20260507112241 51 288 13.0 17.4 0.00 0.00 0.00 99 1008.7
20260507112140 51 288 11.3 18.2 0.00 0.00 0.00 99 1008.7
20260507112038 51 268 11.3 18.2 0.00 0.00 0.00 99 1008.7
20260507111937 51 294 10.4 18.2 0.00 0.00 0.00 99 1008.7
20260507111835 51 298 12.2 18.2 0.00 0.00 0.00 99 1008.7
20260507111735 51 278 12.2 18.2 0.00 0.00 0.00 99 1008.7
20260507111704 51 299 11.3 18.2 0.00 0.00 0.00 99 1008.7
20260507111526 51 291 11.3 18.2 0.00 0.00 0.00 99 1008.7
20260507111424 51 325 11.3 18.2 0.00 0.00 0.00 99 1008.7
20260507111343 51 309 12.2 18.2 0.00 0.00 0.00 99 1008.6
20260507111241 51 302 14.8 18.2 0.00 0.00 0.00 99 1008.6
20260507111139 51 287 11.3 16.5 0.00 0.00 0.00 99 1008.6
20260507111038 51 330 10.4 15.6 0.00 0.00 0.00 99 1008.6
20260507110957 51 330 11.3 15.6 0.00 0.00 0.00 99 1008.6
20260507110839 51 335 10.4 15.6 0.00 0.00 0.00 99 1008.6
20260507110737 51 299 10.4 15.6 0.00 0.00 0.00 99 1008.6
20260507110655 51 330 9.6 15.6 0.00 0.00 0.00 99 1008.6
20260507110533 51 322 10.4 15.6 0.00 0.00 0.00 99 1008.6
20260507110431 51 328 10.4 15.6 0.00 0.00 0.00 99 1008.6
20260507110331 51 315 11.3 16.5 0.00 0.00 0.00 99 1008.6
20260507110240 51 318 10.4 16.5 0.00 0.00 0.00 99 1008.6
20260507110150 51 332 10.4 16.5 0.00 0.00 0.00 99 1008.6
20260507110031 51 325 10.4 16.5 0.00 0.00 0.00 99 1008.6
20260507105949 51 332 9.6 16.5 0.00 0.00 0.00 99 1008.6
20260507105846 51 309 9.6 16.5 0.00 0.00 0.00 99 1008.3
20260507105724 51 302 10.4 16.5 0.00 0.00 0.00 99 1008.3
20260507105641 51 294 10.4 16.5 0.00 0.00 0.00 99 1008.3
20260507105540 51 332 11.3 16.5 0.00 0.00 0.00 99 1008.3
20260507105438 51 274 12.2 16.5 0.00 0.00 0.00 99 1008.3
20260507105358 51 322 13.0 16.5 0.00 0.00 0.00 98 1008.3
20260507105256 51 316 9.6 16.5 0.00 0.00 0.00 98 1008.3
20260507105158 51 326 11.3 16.5 0.00 0.00 0.00 99 1008.3
20260507105035 51 326 11.3 16.5 0.00 0.00 0.00 98 1008.3
20260507104935 51 308 10.4 15.6 0.00 0.00 0.00 99 1008.3
20260507104832 51 332 11.3 16.5 0.00 0.00 0.00 99 1008.3
20260507104743 51 329 12.2 16.5 0.00 0.00 0.00 98 1008.3
20260507104652 51 330 11.3 16.5 0.00 0.00 0.00 98 1008.3
20260507104550 51 328 9.6 16.5 0.00 0.00 0.00 99 1008.3
20260507104425 51 313 11.3 16.5 0.00 0.00 0.00 99 1008.3
20260507104347 51 304 11.3 16.5 0.00 0.00 0.00 99 1008.3
20260507104305 51 328 10.4 16.5 0.00 0.00 0.00 98 1008.3
20260507104202 51 326 10.4 17.4 0.00 0.00 0.00 99 1008.3
20260507104100 51 288 12.2 17.4 0.00 0.00 0.00 99 1008.3
20260507103938 51 265 12.2 17.4 0.00 0.00 0.00 99 1008.3
20260507103837 51 326 11.3 18.2 0.00 0.00 0.00 99 1008.3
20260507103735 51 325 9.6 18.2 0.00 0.00 0.00 99 1008.3
20260507103653 51 323 10.4 18.2 0.00 0.00 0.00 99 1008.3
20260507103531 51 330 12.2 18.2 0.00 0.00 0.00 99 1008.3
20260507103434 51 329 12.2 18.2 0.00 0.00 0.00 99 1008.3
20260507103334 51 216 13.0 18.2 0.00 0.00 0.00 99 1008.3
20260507103233 51 295 11.3 18.2 0.00 0.00 0.00 99 1008.3
20260507103203 51 281 11.3 18.2 0.00 0.00 0.00 99 1008.3
20260507103039 51 335 12.2 18.2 0.00 0.00 0.00 99 1008.3
20260507102938 51 312 13.0 18.2 0.00 0.00 0.00 98 1008.3
20260507102838 51 308 11.3 17.4 0.00 0.00 0.00 98 1008.2
20260507102756 51 308 10.4 17.4 0.00 0.00 0.00 98 1008.2
20260507102638 51 318 12.2 17.4 0.00 0.00 0.00 99 1008.2
20260507102536 51 347 11.3 17.4 0.00 0.00 0.00 99 1008.2
20260507102455 51 326 10.4 17.4 0.00 0.00 0.00 99 1008.2
20260507102353 51 292 13.0 17.4 0.00 0.00 0.00 98 1008.2
20260507102251 51 257 10.4 16.5 0.00 0.00 0.00 99 1008.2
20260507102128 51 263 8.7 16.5 0.00 0.00 0.00 99 1008.2
20260507102026 51 306 11.3 16.5 0.00 0.00 0.00 98 1008.2
20260507101924 51 291 9.6 18.2 0.00 0.00 0.00 98 1008.2
20260507101827 51 278 11.3 18.2 0.00 0.00 0.00 99 1008.2
20260507101725 51 323 11.3 18.2 0.00 0.00 0.00 99 1008.2
20260507101656 51 332 9.6 18.2 0.00 0.00 0.00 99 1008.2
20260507101533 51 333 11.3 18.2 0.00 0.00 0.00 98 1008.2
20260507101432 51 206 12.2 18.2 0.00 0.00 0.00 98 1008.2
20260507101331 51 322 11.3 18.2 0.00 0.00 0.00 98 1007.8
20260507101229 51 330 10.4 18.2 0.00 0.00 0.00 98 1007.8
20260507101133 51 277 12.2 18.2 0.00 0.00 0.00 98 1007.8
20260507101032 51 284 13.0 18.2 0.00 0.00 0.00 98 1007.8
20260507100950 51 271 13.0 18.2 0.00 0.00 0.00 98 1007.8
20260507100827 51 272 11.3 18.2 0.00 0.00 0.00 98 1007.8
20260507100725 51 243 10.4 18.2 0.00 0.00 0.00 98 1007.8
20260507100644 51 302 11.3 18.2 0.00 0.00 0.00 98 1007.8
20260507100542 51 329 13.0 18.2 0.00 0.00 0.00 98 1007.8
20260507100425 51 312 10.4 16.5 0.00 0.00 0.00 98 1007.8
20260507100324 51 333 12.2 16.5 0.00 0.00 0.00 98 1007.8
20260507100243 51 329 11.3 16.5 0.00 0.00 0.00 98 1007.8
20260507100215 51 291 13.0 18.2 0.00 0.00 0.00 98 1007.8
20260507100031 51 302 11.3 19.1 0.00 0.00 0.00 98 1007.8
20260507095929 51 253 12.2 19.1 0.00 0.00 0.00 98 1007.8
20260507095848 51 168 10.4 19.1 0.00 0.00 0.00 98 1008.5
20260507095746 51 332 11.3 19.1 0.00 0.00 0.00 98 1008.5
20260507095625 51 315 13.9 19.1 0.00 0.00 0.00 98 1008.5
20260507095526 51 265 11.3 19.1 0.00 0.00 0.00 98 1008.5
20260507095424 51 320 9.6 19.1 0.00 0.00 0.00 98 1008.5
20260507095342 51 291 12.2 19.1 0.00 0.00 0.00 98 1008.5
20260507095301 51 308 13.9 19.1 0.00 0.00 0.00 98 1008.5
20260507095142 51 308 10.4 17.4 0.00 0.00 0.00 98 1008.5
20260507095040 51 328 12.2 17.4 0.00 0.00 0.00 98 1008.5
20260507094938 51 318 11.3 18.2 0.00 0.00 0.00 98 1008.5
20260507094835 51 319 13.0 18.2 0.00 0.00 0.00 98 1008.5
20260507094738 51 301 9.6 18.2 0.00 0.00 0.00 98 1008.5
20260507094708 51 325 9.6 18.2 0.00 0.00 0.00 98 1008.5
20260507094524 52 325 12.2 18.2 0.00 0.00 0.00 98 1008.5
20260507094443 52 243 9.6 18.2 0.00 0.00 0.00 98 1008.5
20260507094340 52 212 10.4 18.2 0.00 0.00 0.00 98 1007.7
20260507094240 52 295 12.2 18.2 0.00 0.00 0.00 98 1007.7
20260507094137 52 316 13.0 18.2 0.00 0.00 0.00 98 1007.7
20260507094036 52 296 8.7 17.4 0.00 0.00 0.00 98 1007.7
20260507093939 52 233 11.3 20.9 0.00 0.00 0.00 98 1007.7
20260507093837 52 292 10.4 20.9 0.00 0.00 0.00 98 1007.7
20260507093735 52 247 10.4 20.9 0.00 0.00 0.00 98 1007.7
20260507093654 52 330 10.4 20.9 0.00 0.00 0.00 98 1007.7
20260507093531 52 304 12.2 20.9 0.00 0.00 0.00 98 1007.7
20260507093428 52 212 12.2 20.9 0.00 0.00 0.00 98 1007.7
20260507093348 52 191 12.2 20.9 0.00 0.00 0.00 98 1007.7
20260507093306 52 295 10.4 20.9 0.00 0.00 0.00 98 1007.7
20260507093202 52 306 13.9 20.9 0.00 0.00 0.00 98 1007.7
20260507093039 52 102 10.4 17.4 0.00 0.00 0.00 98 1007.7
20260507092938 52 264 11.3 17.4 0.00 0.00 0.00 98 1007.7
20260507092837 52 284 11.3 17.4 0.00 0.00 0.00 98 1008.2
20260507092735 52 313 11.3 17.4 0.00 0.00 0.00 98 1008.2
20260507092634 52 313 13.0 17.4 0.00 0.00 0.00 98 1008.2
20260507092533 52 226 12.2 17.4 0.00 0.00 0.00 98 1008.2
20260507092436 52 124 13.0 17.4 0.00 0.00 0.00 98 1008.2
20260507092334 52 234 11.3 16.5 0.00 0.00 0.00 98 1008.2
20260507092253 52 312 11.3 16.5 0.00 0.00 0.00 98 1008.2
20260507092129 52 326 13.0 16.5 0.00 0.00 0.00 98 1008.2
20260507092028 52 287 14.8 16.5 0.00 0.00 0.00 98 1008.2
20260507091947 52 305 12.2 15.6 0.00 0.00 0.00 98 1008.2
20260507091845 52 227 12.2 15.6 0.00 0.00 0.00 98 1008.2
20260507091733 52 289 10.4 15.6 0.00 0.00 0.00 98 1008.2
20260507091646 52 227 12.2 15.6 0.00 0.00 0.00 98 1008.2
20260507091524 52 246 9.6 14.8 0.00 0.00 0.00 98 1008.2
20260507091443 52 330 10.4 14.8 0.00 0.00 0.00 98 1008.2
20260507091340 52 274 12.2 14.8 0.00 0.00 0.00 98 1008.3
20260507091238 52 319 13.0 14.8 0.00 0.00 0.00 98 1008.3
20260507091158 52 274 10.4 14.8 0.00 0.00 0.00 98 1008.3
20260507091035 52 296 9.6 14.8 0.00 0.00 0.00 98 1008.3
20260507090934 52 270 7.8 14.8 0.00 0.00 0.00 98 1008.3
20260507090852 52 295 9.6 14.8 0.00 0.00 0.00 98 1008.3
20260507090733 52 236 9.6 14.8 0.00 0.00 0.00 98 1008.3
20260507090632 52 86 8.7 16.5 0.00 0.00 0.00 98 1008.3
20260507090530 52 299 8.7 16.5 0.00 0.00 0.00 98 1008.3
20260507090430 52 295 10.4 16.5 0.00 0.00 0.00 98 1008.3
20260507090329 52 318 9.6 16.5 0.00 0.00 0.00 98 1008.3
20260507090239 52 326 8.7 16.5 0.00 0.00 0.00 98 1008.3
20260507090150 52 329 8.7 16.5 0.00 0.00 0.00 98 1008.3
20260507090030 52 292 10.4 16.5 0.00 0.00 0.00 98 1008.3
20260507085929 52 299 11.3 16.5 0.00 0.00 0.00 98 1008.3
20260507085827 52 251 13.9 16.5 0.00 0.00 0.00 98 1008.0
20260507085727 52 328 10.4 14.8 0.00 0.00 0.00 98 1008.0
20260507085624 52 319 9.6 14.8 0.00 0.00 0.00 98 1008.0
20260507085544 52 284 8.7 14.8 0.00 0.00 0.00 98 1008.0
20260507085441 52 69 7.8 15.6 0.00 0.00 0.00 98 1008.0
20260507085404 52 294 7.8 15.6 0.00 0.00 0.00 98 1008.0
20260507085242 52 328 9.6 16.5 0.00 0.00 0.00 98 1008.0
20260507085140 52 306 10.4 16.5 0.00 0.00 0.00 98 1008.0
20260507085039 52 326 10.4 16.5 0.00 0.00 0.00 98 1008.0
20260507084937 52 323 9.6 16.5 0.00 0.00 0.00 98 1008.0
20260507084835 52 302 9.6 16.5 0.00 0.00 0.00 98 1008.0
20260507084734 52 323 10.4 16.5 0.00 0.00 0.00 98 1008.0
20260507084708 52 313 12.2 17.4 0.00 0.00 0.00 98 1008.0
20260507084525 52 316 10.4 17.4 0.00 0.00 0.00 98 1008.0
20260507084424 52 184 13.9 17.4 0.00 0.00 0.00 98 1008.0
20260507084341 52 311 13.9 17.4 0.00 0.00 0.00 98 1008.8
20260507084239 52 328 10.4 17.4 0.00 0.00 0.00 98 1008.8
20260507084138 52 313 7.8 17.4 0.00 0.00 0.00 98 1008.8
20260507084036 52 311 10.4 17.4 0.00 0.00 0.00 98 1008.8
20260507083939 52 219 11.3 17.4 0.00 0.00 0.00 98 1008.8
20260507083858 52 329 13.0 17.4 0.00 0.00 0.00 98 1008.8
20260507083736 52 319 12.2 17.4 0.00 0.00 0.00 98 1008.8
20260507083634 52 298 13.0 15.6 0.00 0.00 0.00 98 1008.8
20260507083533 52 306 12.2 15.6 0.00 0.00 0.00 98 1008.8
20260507083431 52 313 11.3 15.6 0.00 0.00 0.00 98 1008.8
20260507083330 52 318 12.2 15.6 0.00 0.00 0.00 98 1008.8
20260507083243 52 326 9.6 14.8 0.00 0.00 0.00 98 1008.8
20260507083154 52 240 10.4 14.8 0.00 0.00 0.00 98 1008.8
20260507083030 52 254 8.7 14.8 0.00 0.00 0.00 98 1008.8
20260507082929 52 344 9.6 14.8 0.00 0.00 0.00 98 1008.8
20260507082827 52 325 7.8 14.8 0.00 0.00 0.00 98 1008.8
20260507082745 52 326 11.3 14.8 0.00 0.00 0.00 98 1008.8
20260507082642 52 308 9.6 14.8 0.00 0.00 0.00 98 1008.8
20260507082539 52 306 11.3 14.8 0.00 0.00 0.00 98 1008.8
20260507082442 52 301 10.4 14.8 0.00 0.00 0.00 98 1008.8
20260507082342 52 328 8.7 16.5 0.00 0.00 0.00 98 1008.8
20260507082301 52 326 8.7 16.5 0.00 0.00 0.00 98 1008.8
20260507082138 52 250 9.6 16.5 0.00 0.00 0.00 98 1008.8
20260507082037 52 315 7.8 16.5 0.00 0.00 0.00 98 1008.8
20260507081936 52 312 7.8 16.5 0.00 0.00 0.00 98 1008.8
20260507081854 52 322 7.8 16.5 0.00 0.00 0.00 98 1008.8
20260507081732 52 272 9.6 16.5 0.00 0.00 0.00 98 1008.8
20260507081705 52 289 8.7 16.5 0.00 0.00 0.00 98 1008.8
20260507081603 52 315 11.3 16.5 0.00 0.00 0.00 98 1008.8
20260507081441 52 325 10.4 16.5 0.00 0.00 0.00 98 1008.8
20260507081340 52 287 10.4 13.9 0.00 0.00 0.00 98 1007.1
20260507081240 52 278 10.4 15.6 0.00 0.00 0.00 98 1007.1
20260507081200 52 302 9.6 15.6 0.00 0.00 0.00 98 1007.1
20260507081036 52 304 7.0 15.6 0.00 0.00 0.00 98 1007.1
20260507080935 52 59 7.8 15.6 0.00 0.00 0.00 98 1007.1
20260507080837 52 329 9.6 15.6 0.00 0.00 0.00 98 1007.1
20260507080735 52 329 8.7 15.6 0.00 0.00 0.00 98 1007.1
20260507080634 52 329 7.8 15.6 0.00 0.00 0.00 98 1007.1
20260507080532 52 294 8.7 15.6 0.00 0.00 0.00 98 1007.1
20260507080432 52 311 12.2 15.6 0.00 0.00 0.00 98 1007.1
20260507080329 52 329 10.4 15.6 0.00 0.00 0.00 98 1007.1
20260507080231 52 325 10.4 15.6 0.00 0.00 0.00 98 1007.1
20260507080204 52 277 9.6 15.6 0.00 0.00 0.00 98 1007.1
20260507080039 52 309 10.4 15.6 0.00 0.00 0.00 98 1007.1
20260507075937 52 323 10.4 16.5 0.00 0.00 0.00 98 1007.1
20260507075834 52 322 12.2 16.5 0.00 0.00 0.00 98 1007.8
20260507075732 52 165 11.3 16.5 0.00 0.00 0.00 98 1007.8
20260507075630 52 281 13.9 16.5 0.00 0.00 0.00 98 1007.8
20260507075550 52 326 10.4 16.5 0.00 0.00 0.00 98 1007.8
20260507075432 52 223 11.3 16.5 0.00 0.00 0.00 98 1007.8
20260507075330 52 305 10.4 16.5 0.00 0.00 0.00 98 1007.8
20260507075232 52 325 10.4 17.4 0.00 0.00 0.00 98 1007.8
20260507075130 52 322 13.0 17.4 0.00 0.00 0.00 98 1007.8
20260507075027 52 313 12.2 17.4 0.00 0.00 0.00 98 1007.8
20260507074926 52 316 12.2 17.4 0.00 0.00 0.00 98 1007.8
20260507074824 52 325 11.3 17.4 0.00 0.00 0.00 98 1007.8
20260507074757 52 326 10.4 17.4 0.00 0.00 0.00 98 1007.8
20260507074646 52 217 13.9 17.4 0.00 0.00 0.00 98 1007.8
20260507074544 52 148 13.0 17.4 0.00 0.00 0.00 98 1007.8
20260507074421 52 267 13.0 17.4 0.00 0.00 0.00 98 1007.8
20260507074342 52 312 11.3 17.4 0.00 0.00 0.00 98 1009.8
20260507074241 52 305 10.4 17.4 0.00 0.00 0.00 98 1009.8
20260507074139 52 328 11.3 17.4 0.00 0.00 0.00 98 1009.8
20260507074038 52 326 13.0 17.4 0.00 0.00 0.00 98 1009.8
20260507073940 52 287 14.8 17.4 0.00 0.00 0.00 98 1009.8
20260507073839 52 261 13.9 17.4 0.00 0.00 0.00 98 1009.8
20260507073738 52 284 10.4 16.5 0.00 0.00 0.00 98 1009.8
20260507073637 52 308 10.4 16.5 0.00 0.00 0.00 98 1009.8
20260507073535 52 312 11.3 16.5 0.00 0.00 0.00 98 1009.8
20260507073433 52 254 13.0 16.5 0.00 0.00 0.00 98 1009.8
20260507073352 52 200 9.6 15.6 0.00 0.00 0.00 98 1009.8
20260507073233 53 248 9.6 15.6 0.00 0.00 0.00 98 1009.8
20260507073204 52 323 10.4 15.6 0.00 0.00 0.00 98 1009.8
20260507073040 53 130 10.4 15.6 0.00 0.00 0.00 98 1009.8
20260507072942 52 328 11.3 15.6 0.00 0.00 0.00 98 1009.8
20260507072900 53 176 8.7 15.6 0.00 0.00 0.00 98 1008.0
20260507072737 53 323 9.6 15.6 0.00 0.00 0.00 98 1008.0
20260507072635 52 330 10.4 15.6 0.00 0.00 0.00 98 1008.0
20260507072534 52 301 8.7 15.6 0.00 0.00 0.00 98 1008.0
20260507072457 53 328 11.3 16.5 0.00 0.00 0.00 98 1008.0
20260507072335 52 323 8.7 16.5 0.00 0.00 0.00 98 1008.0
20260507072253 53 274 10.4 16.5 0.00 0.00 0.00 98 1008.0
20260507072130 52 280 11.3 16.5 0.00 0.00 0.00 98 1008.0
20260507072029 52 150 7.8 16.5 0.00 0.00 0.00 98 1008.0
20260507071927 53 251 9.6 16.5 0.00 0.00 0.00 98 1008.0
20260507071826 53 244 12.2 16.5 0.00 0.00 0.00 98 1008.0
20260507071744 53 325 10.4 16.5 0.00 0.00 0.00 98 1008.0
20260507071718 53 305 12.2 16.5 0.00 0.00 0.00 98 1008.0
20260507071536 53 309 12.2 16.5 0.00 0.00 0.00 98 1008.0
20260507071455 53 251 11.3 16.5 0.00 0.00 0.00 98 1008.0
20260507071333 53 325 8.7 16.5 0.00 0.00 0.00 98 1008.3
20260507071231 53 278 9.6 16.5 0.00 0.00 0.00 98 1008.3
20260507071131 53 282 9.6 20.9 0.00 0.00 0.00 98 1008.3
20260507071030 53 320 10.4 20.9 0.00 0.00 0.00 98 1008.3
20260507070932 53 257 11.3 20.9 0.00 0.00 0.00 98 1008.3
20260507070831 53 291 12.2 20.9 0.00 0.00 0.00 98 1008.3
20260507070730 53 272 8.7 20.9 0.00 0.00 0.00 98 1008.3
20260507070629 53 263 9.6 20.9 0.00 0.00 0.00 98 1008.3
20260507070548 53 240 7.8 20.9 0.00 0.00 0.00 98 1008.3
20260507070424 53 175 9.6 20.9 0.00 0.00 0.00 98 1008.3
20260507070343 53 102 11.3 20.9 0.00 0.00 0.00 98 1008.3
20260507070233 53 261 10.4 15.6 0.00 0.00 0.00 98 1008.3
20260507070147 53 318 12.2 15.6 0.00 0.00 0.00 98 1008.3
20260507070043 53 246 12.2 15.6 0.00 0.00 0.00 98 1008.3
20260507070003 53 315 10.4 14.8 0.00 0.00 0.00 98 1008.3
20260507065859 53 257 9.6 14.8 0.00 0.00 0.00 98 1008.6
20260507065736 53 198 9.6 14.8 0.00 0.00 0.00 98 1008.6
20260507065636 53 311 10.4 14.8 0.00 0.00 0.00 98 1008.6
20260507065538 53 292 8.7 14.8 0.00 0.00 0.00 98 1008.6
20260507065437 53 325 9.6 14.8 0.00 0.00 0.00 98 1008.6
20260507065339 53 296 9.6 14.8 0.00 0.00 0.00 98 1008.6
20260507065237 53 316 10.4 14.8 0.00 0.00 0.00 98 1008.6
20260507065136 53 86 9.6 14.8 0.00 0.00 0.00 98 1008.6
20260507065034 53 209 8.7 14.8 0.00 0.00 0.00 98 1008.6
20260507064933 53 316 12.2 14.8 0.00 0.00 0.00 98 1008.6
20260507064852 53 356 10.4 14.8 0.00 0.00 0.00 98 1008.6
20260507064728 53 302 12.2 14.8 0.00 0.00 0.00 98 1008.6
20260507064657 53 241 11.3 14.8 0.00 0.00 0.00 98 1008.6
20260507064538 53 316 9.6 14.8 0.00 0.00 0.00 98 1008.6
20260507064437 53 250 7.8 14.8 0.00 0.00 0.00 98 1008.6
20260507064335 53 313 5.2 14.8 0.00 0.00 0.00 98 1007.9
20260507064234 53 319 7.8 14.8 0.00 0.00 0.00 98 1007.9
20260507064130 53 250 9.6 14.8 0.00 0.00 0.00 98 1007.9
20260507064029 53 326 9.6 14.8 0.00 0.00 0.00 98 1007.9
20260507063929 53 181 10.4 14.8 0.00 0.00 0.00 98 1007.9
20260507063831 53 309 9.6 13.9 0.00 0.00 0.00 98 1007.9
20260507063730 53 241 9.6 13.9 0.00 0.00 0.00 98 1007.9
20260507063628 53 316 10.4 15.6 0.00 0.00 0.00 98 1007.9
20260507063527 53 311 10.4 15.6 0.00 0.00 0.00 98 1007.9
20260507063425 53 144 9.6 15.6 0.00 0.00 0.00 98 1007.9
20260507063343 53 289 7.0 15.6 0.00 0.00 0.00 98 1007.9
20260507063227 53 288 8.7 15.6 0.00 0.00 0.00 98 1007.9
20260507063157 53 263 11.3 15.6 0.00 0.00 0.00 98 1007.9
20260507063034 53 193 11.3 15.6 0.00 0.00 0.00 98 1007.9
20260507062952 53 289 11.3 15.6 0.00 0.00 0.00 98 1007.9
20260507062830 53 243 9.6 15.6 0.00 0.00 0.00 98 1008.6
20260507062729 53 247 10.4 15.6 0.00 0.00 0.00 98 1008.6
20260507062628 53 320 7.8 14.8 0.00 0.00 0.00 98 1008.6
20260507062526 53 217 8.7 14.8 0.00 0.00 0.00 98 1008.6
20260507062429 53 328 8.7 14.8 0.00 0.00 0.00 98 1008.6
20260507062327 53 264 7.8 14.8 0.00 0.00 0.00 98 1008.6
20260507062226 53 304 9.6 14.8 0.00 0.00 0.00 98 1008.6
20260507062125 53 236 8.7 14.8 0.00 0.00 0.00 98 1008.6
20260507062024 53 206 12.2 15.6 0.00 0.00 0.00 98 1008.6
20260507061943 53 184 12.2 15.6 0.00 0.00 0.00 98 1008.6
20260507061824 53 202 9.6 15.6 0.00 0.00 0.00 98 1008.6
20260507061753 53 288 10.4 15.6 0.00 0.00 0.00 98 1008.6
20260507061645 53 182 11.3 15.6 0.00 0.00 0.00 98 1008.6
20260507061543 53 140 10.4 15.6 0.00 0.00 0.00 98 1008.6
20260507061442 53 182 9.6 15.6 0.00 0.00 0.00 98 1008.6
20260507061339 53 265 7.8 15.6 0.00 0.00 0.00 98 1009.8
20260507061237 53 313 11.3 15.6 0.00 0.00 0.00 98 1009.8
20260507061135 53 328 9.6 13.0 0.00 0.00 0.00 98 1009.8
20260507061039 53 217 7.8 13.0 0.00 0.00 0.00 98 1009.8
20260507060938 53 333 7.0 12.2 0.00 0.00 0.00 98 1009.8
20260507060837 53 309 7.8 12.2 0.00 0.00 0.00 98 1009.8
20260507060755 53 315 7.0 12.2 0.00 0.00 0.00 98 1009.8
20260507060632 53 287 8.7 12.2 0.00 0.00 0.00 98 1009.8
20260507060533 53 315 9.6 12.2 0.00 0.00 0.00 98 1009.8
20260507060431 53 302 7.0 12.2 0.00 0.00 0.00 98 1009.8
20260507060334 53 311 7.0 12.2 0.00 0.00 0.00 98 1009.8
20260507060254 53 295 10.4 12.2 0.00 0.00 0.00 98 1009.8
20260507060204 53 326 8.7 12.2 0.00 0.00 0.00 98 1009.8
20260507060043 53 313 9.6 12.2 0.00 0.00 0.00 98 1009.8
20260507055941 53 308 10.4 12.2 0.00 0.00 0.00 98 1009.8
20260507055838 53 304 8.7 13.9 0.00 0.00 0.00 98 1009.8
20260507055737 53 326 7.8 13.9 0.00 0.00 0.00 98 1009.8
20260507055636 53 329 6.1 13.9 0.00 0.00 0.00 98 1009.8
20260507055538 53 328 7.0 13.9 0.00 0.00 0.00 98 1009.8
20260507055436 53 267 6.1 13.9 0.00 0.00 0.00 98 1009.8
20260507055335 53 220 7.0 13.9 0.00 0.00 0.00 98 1009.8
20260507055253 53 329 9.6 13.9 0.00 0.00 0.00 98 1009.8
20260507055131 53 258 9.6 14.8 0.00 0.00 0.00 98 1009.8
20260507055030 53 301 9.6 14.8 0.00 0.00 0.00 98 1009.8
20260507054929 53 230 8.7 14.8 0.00 0.00 0.00 98 1009.8
20260507054832 53 261 7.8 14.8 0.00 0.00 0.00 98 1009.8
20260507054729 53 271 9.6 14.8 0.00 0.00 0.00 98 1009.8
20260507054657 54 196 9.6 14.8 0.00 0.00 0.00 98 1009.8
20260507054535 53 140 11.3 14.8 0.00 0.00 0.00 98 1009.8
20260507054434 53 244 8.7 14.8 0.00 0.00 0.00 98 1009.8
20260507054332 54 244 11.3 14.8 0.00 0.00 0.00 98 1009.4
20260507054234 54 289 8.7 14.8 0.00 0.00 0.00 98 1009.4
20260507054152 53 311 8.7 14.8 0.00 0.00 0.00 98 1009.4
20260507054034 53 267 8.7 14.8 0.00 0.00 0.00 98 1009.4
20260507053934 53 296 8.7 14.8 0.00 0.00 0.00 98 1009.4
20260507053833 53 284 9.6 14.8 0.00 0.00 0.00 98 1009.4
20260507053731 53 294 10.4 14.8 0.00 0.00 0.00 98 1009.4
20260507053630 53 227 12.2 14.8 0.00 0.00 0.00 98 1009.4
20260507053548 54 240 9.6 12.2 0.00 0.00 0.00 98 1009.4
20260507053427 53 325 9.6 12.2 0.00 0.00 0.00 98 1009.4
20260507053329 53 257 9.6 12.2 0.00 0.00 0.00 98 1009.4
20260507053249 53 306 10.4 12.2 0.00 0.00 0.00 98 1009.4
20260507053158 54 206 8.7 13.0 0.00 0.00 0.00 98 1009.4
20260507053035 54 265 9.6 14.8 0.00 0.00 0.00 98 1009.4
20260507052935 53 291 7.8 14.8 0.00 0.00 0.00 98 1009.4
20260507052833 53 291 9.6 14.8 0.00 0.00 0.00 98 1009.9
20260507052732 54 288 9.6 14.8 0.00 0.00 0.00 98 1009.9
20260507052633 53 305 8.7 14.8 0.00 0.00 0.00 98 1009.9
20260507052532 54 316 7.8 14.8 0.00 0.00 0.00 98 1009.9
20260507052431 54 227 7.8 14.8 0.00 0.00 0.00 98 1009.9
20260507052330 53 318 9.6 14.8 0.00 0.00 0.00 98 1009.9
20260507052228 54 212 10.4 14.8 0.00 0.00 0.00 98 1009.9
20260507052126 53 227 9.6 13.0 0.00 0.00 0.00 98 1009.9
20260507052026 53 186 10.4 15.6 0.00 0.00 0.00 98 1009.9
20260507051928 54 215 9.6 15.6 0.00 0.00 0.00 98 1009.9
20260507051826 54 285 8.7 15.6 0.00 0.00 0.00 98 1009.9
20260507051724 54 141 9.6 15.6 0.00 0.00 0.00 98 1009.9
20260507051655 53 328 9.6 15.6 0.00 0.00 0.00 98 1009.9
20260507051530 53 254 9.6 15.6 0.00 0.00 0.00 98 1009.9
20260507051429 54 147 11.3 15.6 0.00 0.00 0.00 98 1009.9
20260507051326 54 328 9.6 15.6 0.00 0.00 0.00 98 1009.8
20260507051229 54 319 11.3 15.6 0.00 0.00 0.00 98 1009.8
20260507051128 54 217 10.4 15.6 0.00 0.00 0.00 98 1009.8
20260507051026 54 247 9.6 15.6 0.00 0.00 0.00 98 1009.8
20260507050945 54 182 11.3 15.6 0.00 0.00 0.00 98 1009.8
20260507050843 54 205 10.4 14.8 0.00 0.00 0.00 98 1009.8
20260507050800 54 260 10.4 13.9 0.00 0.00 0.00 98 1009.8
20260507050658 54 244 10.4 13.9 0.00 0.00 0.00 98 1009.8
20260507050535 54 233 8.7 12.2 0.00 0.00 0.00 98 1009.8
20260507050434 54 256 7.8 12.2 0.00 0.00 0.00 98 1009.8
20260507050336 54 328 7.8 12.2 0.00 0.00 0.00 98 1009.8
20260507050234 54 316 7.8 12.2 0.00 0.00 0.00 98 1009.8
20260507050205 54 247 9.6 12.2 0.00 0.00 0.00 98 1009.8
20260507050041 54 326 9.6 12.2 0.00 0.00 0.00 98 1009.8
20260507045940 54 291 10.4 12.2 0.00 0.00 0.00 98 1009.8
20260507045902 54 306 8.7 12.2 0.00 0.00 0.00 98 1009.8
20260507045759 54 288 7.8 12.2 0.00 0.00 0.00 98 1009.8
20260507045636 54 319 7.8 12.2 0.00 0.00 0.00 98 1009.8
20260507045559 54 322 9.6 12.2 0.00 0.00 0.00 98 1009.8
20260507045436 54 329 7.0 12.2 0.00 0.00 0.00 98 1009.8
20260507045335 54 329 7.0 12.2 0.00 0.00 0.00 98 1009.8
20260507045233 54 143 8.7 12.2 0.00 0.00 0.00 98 1009.8
20260507045131 54 202 7.8 14.8 0.00 0.00 0.00 98 1009.8
20260507045030 54 312 8.7 14.8 0.00 0.00 0.00 98 1009.8
20260507044929 54 323 8.7 14.8 0.00 0.00 0.00 98 1009.8
20260507044831 54 325 10.4 14.8 0.00 0.00 0.00 98 1009.8
20260507044800 54 289 6.1 14.8 0.00 0.00 0.00 98 1009.8
20260507044647 54 205 7.0 14.8 0.00 0.00 0.00 98 1009.8
20260507044526 54 305 7.0 14.8 0.00 0.00 0.00 98 1009.8
20260507044425 54 127 9.6 14.8 0.00 0.00 0.00 98 1009.8
20260507044343 54 272 8.7 14.8 0.00 0.00 0.00 98 1009.6
20260507044242 54 275 8.7 14.8 0.00 0.00 0.00 98 1009.6
20260507044141 54 174 8.7 11.3 0.00 0.00 0.00 98 1009.6
20260507044103 54 318 7.8 12.2 0.00 0.00 0.00 98 1009.6
20260507043940 54 274 7.8 12.2 0.00 0.00 0.00 98 1009.6
20260507043839 54 296 7.8 12.2 0.00 0.00 0.00 98 1009.6
20260507043738 54 199 9.6 12.2 0.00 0.00 0.00 98 1009.6
20260507043637 54 320 6.1 12.2 0.00 0.00 0.00 98 1009.6
20260507043534 54 325 4.3 12.2 0.00 0.00 0.00 98 1009.6
20260507043432 54 138 7.8 12.2 0.00 0.00 0.00 98 1009.6
20260507043331 54 330 10.4 12.2 0.00 0.00 0.00 98 1009.6
20260507043253 54 309 10.4 12.2 0.00 0.00 0.00 98 1009.6
20260507043224 54 336 8.7 12.2 0.00 0.00 0.00 98 1009.6
20260507043038 54 313 7.8 12.2 0.00 0.00 0.00 98 1009.6
20260507042937 54 264 7.0 12.2 0.00 0.00 0.00 98 1009.6
20260507042859 54 328 7.0 12.2 0.00 0.00 0.00 98 1009.8
20260507042736 54 301 8.7 12.2 0.00 0.00 0.00 98 1009.8
20260507042634 54 311 7.8 12.2 0.00 0.00 0.00 98 1009.8
20260507042532 54 244 9.6 12.2 0.00 0.00 0.00 98 1009.8
20260507042434 54 124 10.4 12.2 0.00 0.00 0.00 98 1009.8
20260507042332 54 328 10.4 12.2 0.00 0.00 0.00 98 1009.8
20260507042230 54 326 8.7 12.2 0.00 0.00 0.00 98 1009.8
20260507042128 54 268 7.8 12.2 0.00 0.00 0.00 98 1009.8
20260507042027 54 288 10.4 12.2 0.00 0.00 0.00 98 1009.8
20260507041945 54 298 9.6 12.2 0.00 0.00 0.00 98 1009.8
20260507041842 54 199 8.7 12.2 0.00 0.00 0.00 98 1009.8
20260507041735 54 254 10.4 12.2 0.00 0.00 0.00 98 1009.8
20260507041645 54 284 7.0 10.4 0.00 0.00 0.00 98 1009.8
20260507041542 54 232 6.1 10.4 0.00 0.00 0.00 98 1009.8
20260507041422 54 328 8.7 11.3 0.00 0.00 0.00 98 1009.8
20260507041344 54 220 7.8 12.2 0.00 0.00 0.00 98 1009.3
20260507041302 54 280 7.8 12.2 0.00 0.00 0.00 98 1009.3
20260507041140 54 299 8.7 12.2 0.00 0.00 0.00 98 1009.3
20260507041039 54 240 6.1 12.2 0.00 0.00 0.00 98 1009.3
20260507040941 54 287 7.0 12.2 0.00 0.00 0.00 98 1009.3
20260507040839 54 320 7.8 12.2 0.00 0.00 0.00 98 1009.3
20260507040738 54 322 7.0 12.2 0.00 0.00 0.00 98 1009.3
20260507040656 54 107 8.7 12.2 0.00 0.00 0.00 98 1009.3
20260507040534 54 298 8.7 12.2 0.00 0.00 0.00 98 1009.3
20260507040434 54 302 9.6 12.2 0.00 0.00 0.00 98 1009.3
20260507040332 54 296 7.8 11.3 0.00 0.00 0.00 98 1009.3
20260507040235 54 328 6.1 11.3 0.00 0.00 0.00 98 1009.3
20260507040205 54 165 7.0 12.2 0.00 0.00 0.00 98 1009.3
20260507040042 54 325 7.8 12.2 0.00 0.00 0.00 98 1009.3
20260507040002 54 257 7.8 12.2 0.00 0.00 0.00 98 1009.3
20260507035900 54 322 7.8 12.2 0.00 0.00 0.00 98 1009.6
20260507035738 54 332 7.8 12.2 0.00 0.00 0.00 98 1009.6
20260507035657 54 328 7.8 12.2 0.00 0.00 0.00 98 1009.6
20260507035534 54 263 7.8 12.2 0.00 0.00 0.00 98 1009.6
20260507035432 54 323 7.8 12.2 0.00 0.00 0.00 98 1009.6
20260507035336 54 104 7.8 12.2 0.00 0.00 0.00 98 1009.6
20260507035235 54 304 7.8 11.3 0.00 0.00 0.00 98 1009.6
20260507035133 54 301 7.8 11.3 0.00 0.00 0.00 98 1009.6
20260507035032 54 313 8.7 11.3 0.00 0.00 0.00 98 1009.6
20260507034951 54 188 7.8 11.3 0.00 0.00 0.00 98 1009.6
20260507034828 54 322 7.8 11.3 0.00 0.00 0.00 98 1009.6
20260507034726 54 232 7.8 11.3 0.00 0.00 0.00 98 1009.6
20260507034700 54 315 7.8 11.3 0.00 0.00 0.00 98 1009.6
20260507034542 54 304 8.7 11.3 0.00 0.00 0.00 98 1009.6
20260507034440 54 234 8.7 11.3 0.00 0.00 0.00 98 1009.6
20260507034339 54 328 7.8 11.3 0.00 0.00 0.00 98 1010.2
20260507034300 54 61 7.0 12.2 0.00 0.00 0.00 98 1010.2
20260507034137 54 220 6.1 12.2 0.00 0.00 0.00 98 1010.2
20260507034035 54 280 7.0 12.2 0.00 0.00 0.00 98 1010.2
20260507033953 54 195 5.2 12.2 0.00 0.00 0.00 98 1010.2
20260507033835 54 103 6.1 12.2 0.00 0.00 0.00 98 1010.2
20260507033736 54 280 7.0 12.2 0.00 0.00 0.00 98 1010.2
20260507033635 54 229 7.8 12.2 0.00 0.00 0.00 98 1010.2
20260507033534 54 257 8.7 12.2 0.00 0.00 0.00 98 1010.2
20260507033432 54 251 10.4 12.2 0.00 0.00 0.00 98 1010.2
20260507033330 54 332 8.7 11.3 0.00 0.00 0.00 98 1010.2
20260507033249 54 319 9.6 12.2 0.00 0.00 0.00 98 1010.2
20260507033204 54 323 9.6 12.2 0.00 0.00 0.00 98 1010.2
20260507033101 54 258 7.0 12.2 0.00 0.00 0.00 98 1010.2
20260507032938 54 353 7.8 14.8 0.00 0.00 0.00 98 1010.2
20260507032837 54 244 7.8 14.8 0.00 0.00 0.00 98 1009.5
20260507032737 54 326 7.8 14.8 0.00 0.00 0.00 98 1009.5
20260507032635 55 308 9.6 14.8 0.00 0.00 0.00 98 1009.5
20260507032532 54 322 9.6 14.8 0.00 0.00 0.00 98 1009.5
20260507032430 54 302 8.7 14.8 0.00 0.00 0.00 98 1009.5
20260507032332 55 257 7.8 14.8 0.00 0.00 0.00 98 1009.5
20260507032230 55 271 9.6 14.8 0.00 0.00 0.00 98 1009.5
20260507032129 55 322 9.6 14.8 0.00 0.00 0.00 98 1009.5
20260507032028 55 203 8.7 13.9 0.00 0.00 0.00 98 1009.5
20260507031926 55 217 11.3 13.9 0.00 0.00 0.00 98 1009.5
20260507031825 55 296 8.7 12.2 0.00 0.00 0.00 98 1009.5
20260507031743 55 158 8.7 12.2 0.00 0.00 0.00 98 1009.5
20260507031717 55 296 9.6 12.2 0.00 0.00 0.00 98 1009.5
20260507031554 55 296 9.6 12.2 0.00 0.00 0.00 98 1009.5
20260507031432 55 219 9.6 12.2 0.00 0.00 0.00 98 1009.5
20260507031330 55 312 7.0 12.2 0.00 0.00 0.00 98 1009.7
20260507031249 55 305 7.0 12.2 0.00 0.00 0.00 98 1009.7
20260507031148 55 287 8.7 12.2 0.00 0.00 0.00 98 1009.7
20260507031045 55 196 7.8 11.3 0.00 0.00 0.00 98 1009.7
20260507031004 55 237 7.0 11.3 0.00 0.00 0.00 98 1009.7
20260507030842 55 264 7.0 11.3 0.00 0.00 0.00 98 1009.7
20260507030724 55 220 8.7 11.3 0.00 0.00 0.00 98 1009.7
20260507030643 55 216 7.8 11.3 0.00 0.00 0.00 98 1009.7
20260507030541 55 319 8.7 11.3 0.00 0.00 0.00 98 1009.7
20260507030440 55 309 9.6 12.2 0.00 0.00 0.00 98 1009.7
20260507030338 55 232 9.6 12.2 0.00 0.00 0.00 98 1009.7
20260507030237 55 280 8.7 12.2 0.00 0.00 0.00 98 1009.7
20260507030205 55 240 8.7 12.2 0.00 0.00 0.00 98 1009.7
20260507030027 55 323 7.8 12.2 0.00 0.00 0.00 98 1009.7
20260507025945 55 309 8.7 12.2 0.00 0.00 0.00 97 1009.7
20260507025841 55 316 7.8 12.2 0.00 0.00 0.00 97 1009.8
20260507025737 55 267 8.7 12.2 0.00 0.00 0.00 97 1009.8
20260507025656 55 261 8.7 12.2 0.00 0.00 0.00 97 1009.8
20260507025535 55 226 9.6 12.2 0.00 0.00 0.00 97 1009.8
20260507025437 55 189 10.4 12.2 0.00 0.00 0.00 97 1009.8
20260507025335 55 291 10.4 12.2 0.00 0.00 0.00 97 1009.8
20260507025237 55 246 9.6 11.3 0.00 0.00 0.00 98 1009.8
20260507025136 55 193 9.6 10.4 0.00 0.00 0.00 98 1009.8
20260507025034 55 285 8.7 10.4 0.00 0.00 0.00 98 1009.8
20260507024932 55 185 7.8 10.4 0.00 0.00 0.00 98 1009.8
20260507024830 55 264 9.6 10.4 0.00 0.00 0.00 97 1009.8
20260507024728 55 304 7.0 9.6 0.00 0.00 0.00 98 1009.8
20260507024657 55 104 7.0 10.4 0.00 0.00 0.00 98 1009.8
20260507024539 55 220 5.2 10.4 0.00 0.00 0.00 97 1009.8
20260507024438 55 219 5.2 10.4 0.00 0.00 0.00 97 1009.8
20260507024337 55 312 6.1 10.4 0.00 0.00 0.00 97 1009.3
20260507024236 55 313 7.0 11.3 0.00 0.00 0.00 97 1009.3
20260507024135 55 69 7.8 11.3 0.00 0.00 0.00 97 1009.3
20260507024033 55 130 6.1 11.3 0.00 0.00 0.00 97 1009.3
20260507023932 56 217 7.8 11.3 0.00 0.00 0.00 97 1009.3
20260507023854 56 229 8.7 11.3 0.00 0.00 0.00 97 1009.3
20260507023732 56 323 8.7 11.3 0.00 0.00 0.00 97 1009.3
20260507023630 56 223 9.6 11.3 0.00 0.00 0.00 97 1009.3
20260507023528 56 281 7.0 11.3 0.00 0.00 0.00 97 1009.3
20260507023427 56 322 8.7 11.3 0.00 0.00 0.00 98 1009.3
20260507023325 56 220 6.1 10.4 0.00 0.00 0.00 98 1009.3
20260507023235 56 248 8.7 10.4 0.00 0.00 0.00 98 1009.3
20260507023149 56 323 8.7 10.4 0.00 0.00 0.00 98 1009.3
20260507023026 56 253 6.1 9.6 0.00 0.00 0.00 98 1009.3
20260507022924 56 109 5.2 9.6 0.00 0.00 0.00 98 1009.3
20260507022843 56 322 5.2 9.6 0.00 0.00 0.00 98 1009.6
20260507022742 56 305 4.3 9.6 0.00 0.00 0.00 98 1009.6
20260507022640 56 271 4.3 9.6 0.00 0.00 0.00 98 1009.6
20260507022538 56 229 5.2 9.6 0.00 0.00 0.00 97 1009.6
20260507022440 56 326 7.0 9.6 0.00 0.00 0.00 97 1009.6
20260507022339 56 319 7.8 9.6 0.00 0.00 0.00 97 1009.6
20260507022237 56 322 7.8 9.6 0.00 0.00 0.00 97 1009.6
20260507022136 56 309 7.0 8.7 0.00 0.00 0.00 97 1009.6
20260507022054 56 250 6.1 7.8 0.00 0.00 0.00 97 1009.6
20260507021930 56 299 4.3 7.8 0.00 0.00 0.00 97 1009.6
20260507021829 56 174 3.5 7.8 0.00 0.00 0.00 97 1009.6
20260507021733 56 86 3.5 7.8 0.00 0.00 0.00 97 1009.6
20260507021703 56 148 4.3 7.8 0.00 0.00 0.00 97 1009.6
20260507021540 56 325 5.2 7.8 0.00 0.00 0.00 98 1009.6
20260507021438 56 326 6.1 7.8 0.00 0.00 0.00 98 1009.6
20260507021337 56 329 6.1 7.8 0.00 0.00 0.00 98 1009.2
20260507021239 56 226 6.1 7.8 0.00 0.00 0.00 98 1009.2
20260507021138 56 328 7.0 7.8 0.00 0.00 0.00 98 1009.2
20260507021041 56 318 6.1 7.8 0.00 0.00 0.00 97 1009.2
20260507020959 56 320 5.2 6.1 0.00 0.00 0.00 98 1009.2
20260507020837 56 145 3.5 7.0 0.00 0.00 0.00 98 1009.2
20260507020736 56 295 3.5 7.0 0.00 0.00 0.00 98 1009.2
20260507020656 56 288 5.2 7.0 0.00 0.00 0.00 97 1009.2
20260507020534 56 329 5.2 7.0 0.00 0.00 0.00 97 1009.2
20260507020431 56 219 5.2 7.0 0.00 0.00 0.00 97 1009.2
20260507020330 56 169 5.2 7.0 0.00 0.00 0.00 97 1009.2
20260507020232 56 157 5.2 7.0 0.00 0.00 0.00 97 1009.2
20260507020202 56 215 5.2 7.0 0.00 0.00 0.00 97 1009.2
20260507020038 56 160 6.1 7.0 0.00 0.00 0.00 97 1009.2
20260507015937 56 318 6.1 7.0 0.00 0.00 0.00 97 1009.2
20260507015835 56 322 6.1 7.0 0.00 0.00 0.00 97 1009.2
20260507015734 56 270 5.2 7.0 0.00 0.00 0.00 97 1009.2
20260507015634 56 270 5.2 7.0 0.00 0.00 0.00 97 1009.2
20260507015537 56 230 4.3 7.0 0.00 0.00 0.00 97 1009.2
20260507015456 56 247 5.2 7.0 0.00 0.00 0.00 97 1009.2
20260507015334 56 329 5.2 7.0 0.00 0.00 0.00 97 1009.2
20260507015232 56 326 5.2 7.0 0.00 0.00 0.00 97 1009.2
20260507015130 56 222 5.2 7.0 0.00 0.00 0.00 97 1009.2
20260507015048 56 130 6.1 7.0 0.00 0.00 0.00 97 1009.2
20260507014925 56 332 4.3 7.0 0.00 0.00 0.00 97 1009.2
20260507014829 56 312 4.3 8.7 0.00 0.00 0.00 97 1009.2
20260507014728 56 258 6.1 8.7 0.00 0.00 0.00 97 1009.2
20260507014657 56 309 6.1 9.6 0.00 0.00 0.00 97 1009.2
20260507014537 56 288 6.1 9.6 0.00 0.00 0.00 97 1009.2
20260507014456 56 326 6.1 9.6 0.00 0.00 0.00 97 1009.2
20260507014334 56 289 6.1 9.6 0.00 0.00 0.00 97 1009.1
20260507014235 56 203 6.1 9.6 0.00 0.00 0.00 97 1009.1
20260507014136 56 99 5.2 9.6 0.00 0.00 0.00 97 1009.1
20260507014038 56 117 6.1 9.6 0.00 0.00 0.00 97 1009.1
20260507013955 56 330 7.8 9.6 0.00 0.00 0.00 97 1009.1
20260507013833 56 75 7.0 9.6 0.00 0.00 0.00 97 1009.1
20260507013731 56 213 7.8 9.6 0.00 0.00 0.00 97 1009.1
20260507013628 56 278 7.0 9.6 0.00 0.00 0.00 97 1009.1
20260507013547 56 312 7.8 9.6 0.00 0.00 0.00 97 1009.1
20260507013445 56 295 7.8 9.6 0.00 0.00 0.00 97 1009.1
20260507013403 56 330 7.0 9.6 0.00 0.00 0.00 97 1009.1
20260507013236 56 182 7.0 9.6 0.00 0.00 0.00 97 1009.1
20260507013145 56 313 6.1 9.6 0.00 0.00 0.00 97 1009.1
20260507013041 56 323 6.1 9.6 0.00 0.00 0.00 97 1009.1
20260507012940 56 316 6.1 9.6 0.00 0.00 0.00 97 1009.1
20260507012838 56 322 7.0 9.6 0.00 0.00 0.00 97 1008.9
20260507012737 56 326 7.0 9.6 0.00 0.00 0.00 97 1008.9
20260507012637 56 326 7.8 9.6 0.00 0.00 0.00 97 1008.9
20260507012535 56 241 7.0 9.6 0.00 0.00 0.00 97 1008.9
20260507012437 56 145 6.1 9.6 0.00 0.00 0.00 97 1008.9
20260507012355 56 330 7.0 9.6 0.00 0.00 0.00 97 1008.9
20260507012232 56 329 6.1 10.4 0.00 0.00 0.00 97 1008.9
20260507012131 56 306 7.8 10.4 0.00 0.00 0.00 97 1008.9
20260507012029 56 319 8.7 10.4 0.00 0.00 0.00 97 1008.9
20260507011927 56 296 7.8 10.4 0.00 0.00 0.00 97 1008.9
20260507011825 56 92 6.1 10.4 0.00 0.00 0.00 97 1008.9
20260507011739 56 224 7.0 11.3 0.00 0.00 0.00 97 1008.9
20260507011651 56 304 7.8 11.3 0.00 0.00 0.00 97 1008.9
20260507011529 56 247 7.8 12.2 0.00 0.00 0.00 97 1008.9
20260507011447 56 329 7.8 12.2 0.00 0.00 0.00 97 1008.9
20260507011326 56 261 7.0 13.0 0.00 0.00 0.00 97 1009.3
20260507011244 56 325 7.0 13.0 0.00 0.00 0.00 97 1009.3
20260507011203 56 136 7.8 13.0 0.00 0.00 0.00 97 1009.3
20260507011042 56 319 8.7 13.0 0.00 0.00 0.00 97 1009.3
20260507010924 56 326 8.7 13.0 0.00 0.00 0.00 97 1009.3
20260507010842 56 313 10.4 13.0 0.00 0.00 0.00 97 1009.3
20260507010800 56 219 8.7 13.0 0.00 0.00 0.00 97 1009.3
20260507010638 57 169 10.4 13.0 0.00 0.00 0.00 97 1009.3
20260507010557 57 205 11.3 13.0 0.00 0.00 0.00 97 1009.3
20260507010435 57 328 8.7 11.3 0.00 0.00 0.00 97 1009.3
20260507010334 57 236 8.7 10.4 0.00 0.00 0.00 97 1009.3
20260507010243 57 95 7.0 10.4 0.00 0.00 0.00 97 1009.3
20260507010157 57 160 7.8 10.4 0.00 0.00 0.00 97 1009.3
20260507010034 57 328 7.0 9.6 0.00 0.00 0.00 97 1009.3
20260507005932 57 323 7.0 9.6 0.00 0.00 0.00 97 1009.3
20260507005850 57 160 7.0 9.6 0.00 0.00 0.00 97 1009.4
20260507005727 57 329 7.0 9.6 0.00 0.00 0.00 97 1009.4
20260507005627 57 302 6.1 9.6 0.00 0.00 0.00 97 1009.4
20260507005525 57 264 7.0 9.6 0.00 0.00 0.00 97 1009.4
20260507005427 57 268 6.1 9.6 0.00 0.00 0.00 97 1009.4
20260507005324 57 329 7.8 9.6 0.00 0.00 0.00 97 1009.4
20260507005243 57 165 7.8 9.6 0.00 0.00 0.00 97 1009.4
20260507005140 57 285 7.0 9.6 0.00 0.00 0.00 97 1009.4
20260507005039 57 326 7.8 9.6 0.00 0.00 0.00 97 1009.4
20260507004937 57 330 7.8 10.4 0.00 0.00 0.00 97 1009.4
20260507004835 57 328 7.8 10.4 0.00 0.00 0.00 97 1009.4
20260507004744 57 328 6.1 10.4 0.00 0.00 0.00 97 1009.4
20260507004657 57 329 7.0 10.4 0.00 0.00 0.00 97 1009.4
20260507004535 57 281 7.0 10.4 0.00 0.00 0.00 97 1009.4
20260507004432 57 320 7.0 10.4 0.00 0.00 0.00 97 1009.4
20260507004331 57 330 7.8 10.4 0.00 0.00 0.00 97 1009.6
20260507004229 57 319 6.1 10.4 0.00 0.00 0.00 97 1009.6
20260507004127 57 244 7.8 10.4 0.00 0.00 0.00 97 1009.6
20260507004027 57 330 7.0 9.6 0.00 0.00 0.00 97 1009.6
20260507003949 57 298 7.0 9.6 0.00 0.00 0.00 97 1009.6
20260507003827 57 325 7.8 9.6 0.00 0.00 0.00 97 1009.6
20260507003726 57 316 7.8 9.6 0.00 0.00 0.00 97 1009.6
20260507003625 57 144 7.0 9.6 0.00 0.00 0.00 97 1009.6
20260507003528 57 330 2.6 9.6 0.00 0.00 0.00 97 1009.6
20260507003426 57 325 3.5 9.6 0.00 0.00 0.00 97 1009.6
20260507003324 57 326 6.1 10.4 0.00 0.00 0.00 97 1009.6
20260507003247 57 330 7.0 12.2 0.00 0.00 0.00 97 1009.6
20260507003157 57 323 6.1 12.2 0.00 0.00 0.00 97 1009.6
20260507003033 58 284 6.1 12.2 0.00 0.00 0.00 97 1009.6
20260507002953 57 323 6.1 12.2 0.00 0.00 0.00 97 1009.6
20260507002830 57 325 7.0 13.9 0.00 0.00 0.00 97 1009.1
20260507002749 57 281 6.1 13.9 0.00 0.00 0.00 97 1009.1
20260507002627 57 326 7.0 13.9 0.00 0.00 0.00 97 1009.1
20260507002526 57 126 7.0 13.9 0.00 0.00 0.00 97 1009.1
20260507002432 57 184 7.8 13.9 0.00 0.00 0.00 97 1009.1
20260507002330 57 323 7.8 13.9 0.00 0.00 0.00 97 1009.1
20260507002229 57 287 6.1 13.9 0.00 0.00 0.00 97 1009.1
20260507002127 57 313 7.0 13.9 0.00 0.00 0.00 97 1009.1
20260507002046 57 256 7.8 13.9 0.00 0.00 0.00 97 1009.1
20260507001924 57 241 8.7 13.9 0.00 0.00 0.00 97 1009.1
20260507001843 57 326 7.8 13.9 0.00 0.00 0.00 97 1009.1
20260507001737 58 265 9.6 13.9 0.00 0.00 0.00 97 1009.1
20260507001646 57 271 11.3 13.9 0.00 0.00 0.00 97 1009.1
20260507001544 58 329 10.4 13.9 0.00 0.00 0.00 97 1009.1
20260507001441 58 200 7.8 13.9 0.00 0.00 0.00 97 1009.1
20260507001340 58 184 10.4 13.9 0.00 0.00 0.00 97 1009.5
20260507001238 58 227 7.8 13.9 0.00 0.00 0.00 97 1009.5
20260507001136 58 263 8.7 12.2 0.00 0.00 0.00 97 1009.5
20260507001033 58 232 9.6 12.2 0.00 0.00 0.00 97 1009.5
20260507000937 58 329 8.7 12.2 0.00 0.00 0.00 97 1009.5
20260507000835 58 325 8.7 12.2 0.00 0.00 0.00 97 1009.5
20260507000754 58 92 8.7 12.2 0.00 0.00 0.00 97 1009.5
20260507000631 58 189 7.8 12.2 0.00 0.00 0.00 97 1009.5
20260507000532 58 308 7.8 12.2 0.00 0.00 0.00 97 1009.5
20260507000429 58 251 7.8 12.2 0.00 0.00 0.00 97 1009.5
20260507000329 58 354 7.8 11.3 0.00 0.00 0.00 97 1009.5
20260507000248 58 227 6.1 11.3 0.00 0.00 0.00 97 1009.5
20260507000222 58 356 7.0 11.3 0.00 0.00 0.00 97 1009.5
20260507000038 58 328 7.8 11.3 0.00 0.00 0.00 97 1009.5
20260506235937 58 281 6.1 11.3 0.00 0.00 0.00 97 1009.5
20260506235836 58 137 5.2 11.3 0.00 0.00 0.00 97 1009.0
20260506235734 58 360 6.1 11.3 0.00 0.00 0.00 97 1009.0
20260506235631 58 174 5.2 11.3 0.00 0.00 0.00 97 1009.0
20260506235529 58 333 4.3 11.3 0.00 0.00 0.00 97 1009.0
20260506235433 58 329 3.5 11.3 0.00 0.00 0.00 97 1009.0
20260506235332 58 326 6.1 13.9 0.00 0.00 0.00 97 1009.0
20260506235232 58 328 5.2 13.9 0.00 0.00 0.00 97 1009.0
20260506235150 59 119 9.6 13.9 0.00 0.00 0.00 97 1009.0
20260506235046 59 109 6.1 13.9 0.00 0.00 0.00 97 1009.0
20260506234925 59 294 7.0 13.9 0.00 0.00 0.00 97 1009.0
20260506234824 58 220 5.2 13.9 0.00 0.00 0.00 97 1009.0
20260506234755 59 167 7.0 13.9 0.00 0.00 0.00 97 1009.0
20260506234645 59 328 7.0 13.9 0.00 0.00 0.00 97 1009.0
20260506234544 59 199 7.8 13.9 0.00 0.00 0.00 97 1009.0
20260506234442 59 172 7.8 10.4 0.00 0.00 0.00 97 1009.0
20260506234322 59 318 7.0 9.6 0.00 0.00 0.00 97 1009.0
20260506234243 59 277 6.1 9.6 0.00 0.00 0.00 97 1009.0
20260506234142 59 220 4.3 7.0 0.00 0.00 0.00 97 1009.0
20260506234041 59 247 5.2 7.8 0.00 0.00 0.00 97 1009.0
20260506233958 59 145 5.2 9.6 0.00 0.00 0.00 97 1009.0
20260506233840 59 212 5.2 9.6 0.00 0.00 0.00 97 1009.0
20260506233738 59 359 4.3 9.6 0.00 0.00 0.00 97 1009.0
20260506233637 59 329 5.2 9.6 0.00 0.00 0.00 96 1009.0
20260506233536 59 330 5.2 9.6 0.00 0.00 0.00 97 1009.0
20260506233454 59 296 5.2 9.6 0.00 0.00 0.00 96 1009.0
20260506233332 59 329 6.1 9.6 0.00 0.00 0.00 96 1009.0
20260506233301 59 308 7.0 9.6 0.00 0.00 0.00 96 1009.0
20260506233151 59 316 7.0 9.6 0.00 0.00 0.00 96 1009.0
20260506233032 59 274 5.2 9.6 0.00 0.00 0.00 96 1009.0
20260506232950 59 306 5.2 10.4 0.00 0.00 0.00 96 1009.0
20260506232828 59 206 7.0 10.4 0.00 0.00 0.00 96 1009.3
20260506232725 59 333 5.2 10.4 0.00 0.00 0.00 96 1009.3
20260506232643 59 72 7.0 10.4 0.00 0.00 0.00 96 1009.3
20260506232540 59 282 7.0 10.4 0.00 0.00 0.00 96 1009.3
20260506232459 59 308 6.1 12.2 0.00 0.00 0.00 96 1009.3
20260506232336 59 304 6.1 12.2 0.00 0.00 0.00 96 1009.3
20260506232239 59 113 6.1 12.2 0.00 0.00 0.00 96 1009.3
20260506232137 60 346 7.0 12.2 0.00 0.00 0.00 96 1009.3
20260506232035 60 356 6.1 12.2 0.00 0.00 0.00 96 1009.3
20260506231934 60 243 6.1 13.0 0.00 0.00 0.00 96 1009.3
20260506231833 60 330 7.8 13.0 0.00 0.00 0.00 96 1009.3
20260506231743 60 141 6.1 13.0 0.00 0.00 0.00 96 1009.3
20260506231652 60 176 8.7 13.0 0.00 0.00 0.00 96 1009.3
20260506231535 60 14 6.1 13.0 0.00 0.00 0.00 96 1009.3
20260506231436 60 239 7.8 13.0 0.00 0.00 0.00 96 1009.3
20260506231333 61 295 8.7 13.0 0.00 0.00 0.00 96 1009.2
20260506231233 61 328 8.7 13.0 0.00 0.00 0.00 96 1009.2
20260506231131 61 340 9.6 13.0 0.00 0.00 0.00 96 1009.2
20260506231029 61 328 8.7 11.3 0.00 0.00 0.00 96 1009.2
20260506230927 61 356 7.8 11.3 0.00 0.00 0.00 96 1009.2
20260506230850 61 313 7.0 11.3 0.00 0.00 0.00 96 1009.2
20260506230726 62 328 7.8 11.3 0.00 0.00 0.00 96 1009.2
20260506230644 62 352 7.0 11.3 0.00 0.00 0.00 96 1009.2
20260506230542 62 326 6.1 11.3 0.00 0.00 0.00 96 1009.2
20260506230441 62 323 6.1 11.3 0.00 0.00 0.00 97 1009.2
20260506230400 62 229 7.0 11.3 0.00 0.00 0.00 97 1009.2
20260506230237 62 329 7.0 10.4 0.00 0.00 0.00 97 1009.2
20260506230207 62 319 7.0 10.4 0.00 0.00 0.00 97 1009.2
20260506230104 62 349 5.2 10.4 0.00 0.00 0.00 97 1009.2
20260506225941 62 136 6.1 10.4 0.00 0.00 0.00 97 1009.2
20260506225903 62 337 6.1 10.4 0.00 0.00 0.00 97 1009.0
20260506225741 62 344 7.0 10.4 0.00 0.00 0.00 97 1009.0
20260506225639 62 329 7.0 10.4 0.00 0.00 0.00 97 1009.0
20260506225538 62 332 7.0 10.4 0.00 0.00 0.00 97 1009.0
20260506225436 62 328 7.0 10.4 0.00 0.00 0.00 97 1009.0
20260506225355 63 333 4.3 10.4 0.00 0.00 0.00 97 1009.0
20260506225233 62 316 4.3 10.4 0.00 0.00 0.00 97 1009.0
20260506225152 62 350 7.8 10.4 0.00 0.00 0.00 97 1009.0
20260506225034 62 185 5.2 10.4 0.00 0.00 0.00 97 1009.0
20260506224954 63 326 4.3 10.4 0.00 0.00 0.00 97 1009.0
20260506224831 62 326 8.7 10.4 0.00 0.00 0.00 97 1009.0
20260506224741 62 333 6.1 10.4 0.00 0.00 0.00 97 1009.0
20260506224649 62 333 4.3 10.4 0.00 0.00 0.00 97 1009.0
20260506224526 62 333 1.7 10.4 0.00 0.00 0.00 97 1009.0
20260506224424 62 319 5.2 10.4 0.00 0.00 0.00 97 1009.0
20260506224328 62 347 5.2 10.4 0.00 0.00 0.00 97 1008.6
20260506224226 62 326 7.0 10.4 0.00 0.00 0.00 97 1008.6
20260506224124 62 325 5.2 10.4 0.00 0.00 0.00 97 1008.6
20260506224043 62 325 5.2 10.4 0.00 0.00 0.00 97 1008.6
20260506223942 62 326 4.3 10.4 0.00 0.00 0.00 97 1008.6
20260506223839 62 329 6.1 10.4 0.00 0.00 0.00 97 1008.6
20260506223759 62 315 7.0 10.4 0.00 0.00 0.00 97 1008.6
20260506223636 62 328 6.1 11.3 0.00 0.00 0.00 97 1008.6
20260506223538 62 330 3.5 11.3 0.00 0.00 0.00 97 1008.6
20260506223436 62 323 4.3 11.3 0.00 0.00 0.00 97 1008.6
20260506223334 62 329 6.1 11.3 0.00 0.00 0.00 97 1008.6
20260506223243 62 328 2.6 11.3 0.00 0.00 0.00 97 1008.6
20260506223154 62 335 4.3 11.3 0.00 0.00 0.00 97 1008.6
20260506223030 62 333 5.2 11.3 0.00 0.00 0.00 97 1008.6
20260506222928 63 54 5.2 11.3 0.00 0.00 0.00 97 1008.6
20260506222831 62 319 7.0 11.3 0.00 0.00 0.00 97 1008.2
20260506222730 62 326 7.0 11.3 0.00 0.00 0.00 97 1008.2
20260506222628 62 306 6.1 11.3 0.00 0.00 0.00 97 1008.2
20260506222525 62 333 7.0 11.3 0.00 0.00 0.00 97 1008.2
20260506222424 62 346 6.1 11.3 0.00 0.00 0.00 97 1008.2
20260506222342 63 333 7.0 11.3 0.00 0.00 0.00 97 1008.2
20260506222241 63 326 6.1 10.4 0.00 0.00 0.00 97 1008.2
20260506222200 63 315 6.1 10.4 0.00 0.00 0.00 97 1008.2
20260506222041 63 326 7.0 10.4 0.00 0.00 0.00 97 1008.2
20260506221938 63 329 7.0 10.4 0.00 0.00 0.00 97 1008.2
20260506221835 62 333 5.2 10.4 0.00 0.00 0.00 97 1008.2
20260506221734 63 328 5.2 10.4 0.00 0.00 0.00 97 1008.2
20260506221703 62 315 4.3 10.4 0.00 0.00 0.00 97 1008.2
20260506221601 63 357 5.2 10.4 0.00 0.00 0.00 97 1008.2
20260506221439 62 333 7.0 10.4 0.00 0.00 0.00 97 1008.2
20260506221336 63 349 6.1 10.4 0.00 0.00 0.00 97 1008.8
20260506221238 62 340 4.3 10.4 0.00 0.00 0.00 97 1008.8
20260506221137 63 325 5.2 10.4 0.00 0.00 0.00 97 1008.8
20260506221037 63 342 7.8 10.4 0.00 0.00 0.00 97 1008.8
20260506220935 63 330 7.8 9.6 0.00 0.00 0.00 97 1008.8
20260506220853 62 322 5.2 7.8 0.00 0.00 0.00 97 1008.8
20260506220731 63 350 4.3 6.1 0.00 0.00 0.00 97 1008.8
20260506220650 62 316 5.2 6.1 0.00 0.00 0.00 97 1008.8
20260506220527 62 325 1.7 6.1 0.00 0.00 0.00 97 1008.8
20260506220428 62 325 3.5 6.1 0.00 0.00 0.00 97 1008.8
20260506220328 62 323 0.9 6.1 0.00 0.00 0.00 97 1008.8
20260506220237 62 315 0.9 7.0 0.00 0.00 0.00 97 1008.8
20260506220147 62 319 2.6 7.0 0.00 0.00 0.00 97 1008.8
20260506220044 62 319 3.5 7.0 0.00 0.00 0.00 97 1008.8
20260506215941 62 325 3.5 7.0 0.00 0.00 0.00 97 1008.8
20260506215841 62 313 3.5 7.0 0.00 0.00 0.00 97 1008.0
20260506215739 62 319 0.9 7.0 0.00 0.00 0.00 97 1008.0
20260506215642 62 316 3.5 7.0 0.00 0.00 0.00 97 1008.0
20260506215602 62 319 5.2 7.0 0.00 0.00 0.00 97 1008.0
20260506215439 62 333 4.3 7.0 0.00 0.00 0.00 97 1008.0
20260506215336 62 326 3.5 7.0 0.00 0.00 0.00 97 1008.0
20260506215232 62 322 2.6 7.0 0.00 0.00 0.00 97 1008.0
20260506215131 62 329 3.5 7.0 0.00 0.00 0.00 97 1008.0
20260506215029 62 326 2.6 7.0 0.00 0.00 0.00 97 1008.0
20260506214928 62 333 3.5 7.0 0.00 0.00 0.00 97 1008.0
20260506214829 62 323 5.2 7.0 0.00 0.00 0.00 96 1008.0
20260506214740 62 320 3.5 6.1 0.00 0.00 0.00 96 1008.0
20260506214649 62 336 3.5 6.1 0.00 0.00 0.00 96 1008.0
20260506214527 62 340 5.2 6.1 0.00 0.00 0.00 97 1008.0
20260506214446 62 319 3.5 6.1 0.00 0.00 0.00 97 1008.0
20260506214344 62 340 3.5 6.1 0.00 0.00 0.00 96 1008.0
20260506214241 62 340 2.6 6.1 0.00 0.00 0.00 97 1008.0
20260506214159 62 342 2.6 6.1 0.00 0.00 0.00 97 1008.0
20260506214041 62 333 1.7 6.1 0.00 0.00 0.00 97 1008.0
20260506214000 62 326 3.5 6.1 0.00 0.00 0.00 96 1008.0
20260506213837 62 333 4.3 6.1 0.00 0.00 0.00 96 1008.0
20260506213736 62 332 4.3 6.1 0.00 0.00 0.00 96 1008.0
20260506213654 62 330 2.6 6.1 0.00 0.00 0.00 96 1008.0
20260506213531 62 309 1.7 6.1 0.00 0.00 0.00 96 1008.0
20260506213449 63 323 1.7 7.0 0.00 0.00 0.00 96 1008.0
20260506213347 62 328 3.5 7.8 0.00 0.00 0.00 96 1008.0
20260506213246 62 328 5.2 7.8 0.00 0.00 0.00 96 1008.0
20260506213201 62 320 5.2 7.8 0.00 0.00 0.00 96 1008.0
20260506213040 62 326 4.3 7.8 0.00 0.00 0.00 96 1008.0
20260506212937 62 326 3.5 7.8 0.00 0.00 0.00 96 1008.0
20260506212837 62 333 3.5 7.8 0.00 0.00 0.00 96 1008.0
20260506212735 62 323 2.6 7.8 0.00 0.00 0.00 96 1008.0
20260506212634 62 332 5.2 7.8 0.00 0.00 0.00 96 1008.0
20260506212532 62 329 5.2 7.8 0.00 0.00 0.00 96 1008.0
20260506212434 62 326 3.5 7.8 0.00 0.00 0.00 96 1008.0
20260506212353 62 315 4.3 7.8 0.00 0.00 0.00 96 1008.0
20260506212229 62 326 3.5 7.8 0.00 0.00 0.00 96 1008.0
20260506212151 63 329 5.2 7.8 0.00 0.00 0.00 96 1008.0
20260506212029 62 326 6.1 7.8 0.00 0.00 0.00 96 1008.0
20260506211928 62 332 3.5 7.8 0.00 0.00 0.00 96 1008.0
20260506211827 62 337 5.2 7.8 0.00 0.00 0.00 96 1008.0
20260506211731 63 336 6.1 7.8 0.00 0.00 0.00 96 1008.0
20260506211659 62 335 5.2 7.8 0.00 0.00 0.00 96 1008.0
20260506211539 62 323 4.3 7.0 0.00 0.00 0.00 96 1008.0
20260506211458 62 315 3.5 9.6 0.00 0.00 0.00 96 1008.0
20260506211355 62 322 4.3 10.4 0.00 0.00 0.00 96 1007.9
20260506211233 62 322 5.2 10.4 0.00 0.00 0.00 96 1007.9
20260506211132 62 322 6.1 10.4 0.00 0.00 0.00 96 1007.9
20260506211030 62 309 5.2 10.4 0.00 0.00 0.00 96 1007.9
20260506210934 62 318 6.1 10.4 0.00 0.00 0.00 96 1007.9
20260506210832 62 326 5.2 10.4 0.00 0.00 0.00 96 1007.9
20260506210731 62 323 4.3 10.4 0.00 0.00 0.00 96 1007.9
20260506210650 62 320 4.3 10.4 0.00 0.00 0.00 96 1007.9
20260506210527 62 318 7.0 10.4 0.00 0.00 0.00 96 1007.9
20260506210429 62 322 7.8 9.6 0.00 0.00 0.00 96 1007.9
20260506210327 62 308 5.2 9.6 0.00 0.00 0.00 96 1007.9
20260506210228 62 322 4.3 9.6 0.00 0.00 0.00 96 1007.9
20260506210200 62 337 4.3 9.6 0.00 0.00 0.00 96 1007.9
20260506210037 62 323 4.3 9.6 0.00 0.00 0.00 96 1007.9
20260506205939 62 320 4.3 9.6 0.00 0.00 0.00 96 1007.9
20260506205838 62 326 5.2 9.6 0.00 0.00 0.00 96 1007.6
20260506205735 62 318 4.3 8.7 0.00 0.00 0.00 96 1007.6
20260506205635 62 320 3.5 8.7 0.00 0.00 0.00 96 1007.6
20260506205538 62 308 2.6 8.7 0.00 0.00 0.00 96 1007.6
20260506205437 62 308 4.3 8.7 0.00 0.00 0.00 96 1007.6
20260506205354 62 325 5.2 8.7 0.00 0.00 0.00 96 1007.6
20260506205254 62 330 5.2 8.7 0.00 0.00 0.00 96 1007.6
20260506205132 62 328 3.5 8.7 0.00 0.00 0.00 96 1007.6
20260506205030 62 322 4.3 8.7 0.00 0.00 0.00 96 1007.6
20260506204929 62 322 4.3 8.7 0.00 0.00 0.00 96 1007.6
20260506204828 62 306 3.5 8.7 0.00 0.00 0.00 96 1007.6
20260506204802 62 330 3.5 10.4 0.00 0.00 0.00 96 1007.6
20260506204651 62 323 4.3 10.4 0.00 0.00 0.00 96 1007.6
20260506204529 62 320 3.5 10.4 0.00 0.00 0.00 96 1007.6
20260506204447 62 322 2.6 10.4 0.00 0.00 0.00 96 1007.6
20260506204324 62 322 4.3 10.4 0.00 0.00 0.00 96 1008.1
20260506204242 62 316 4.3 10.4 0.00 0.00 0.00 96 1008.1
20260506204140 62 323 5.2 10.4 0.00 0.00 0.00 96 1008.1
20260506204039 62 326 3.5 10.4 0.00 0.00 0.00 96 1008.1
20260506203958 62 320 6.1 10.4 0.00 0.00 0.00 96 1008.1
20260506203900 62 329 7.0 10.4 0.00 0.00 0.00 96 1008.1
20260506203757 62 318 7.8 10.4 0.00 0.00 0.00 96 1008.1
20260506203635 62 322 7.8 10.4 0.00 0.00 0.00 96 1008.1
20260506203532 62 326 6.1 9.6 0.00 0.00 0.00 96 1008.1
20260506203430 62 326 4.3 9.6 0.00 0.00 0.00 96 1008.1
20260506203328 62 316 4.3 9.6 0.00 0.00 0.00 96 1008.1
20260506203226 62 328 6.1 10.4 0.00 0.00 0.00 96 1008.1
20260506203157 62 323 4.3 10.4 0.00 0.00 0.00 96 1008.1
20260506203040 62 340 3.5 10.4 0.00 0.00 0.00 96 1008.1
20260506202939 62 323 6.1 10.4 0.00 0.00 0.00 96 1008.1
20260506202837 62 330 7.0 10.4 0.00 0.00 0.00 96 1008.1
20260506202735 62 326 7.8 10.4 0.00 0.00 0.00 96 1008.1
20260506202634 62 329 6.1 10.4 0.00 0.00 0.00 96 1008.1
20260506202552 62 318 4.3 10.4 0.00 0.00 0.00 96 1008.1
20260506202430 62 319 6.1 10.4 0.00 0.00 0.00 96 1008.1
20260506202332 62 325 3.5 9.6 0.00 0.00 0.00 96 1008.1
20260506202230 62 335 6.1 9.6 0.00 0.00 0.00 96 1008.1
20260506202128 62 329 4.3 9.6 0.00 0.00 0.00 96 1008.1
20260506202028 62 323 2.6 9.6 0.00 0.00 0.00 96 1008.1
20260506201926 62 322 3.5 9.6 0.00 0.00 0.00 96 1008.1
20260506201824 62 315 0.9 9.6 0.00 0.00 0.00 96 1008.1
20260506201735 62 328 3.5 9.6 0.00 0.00 0.00 96 1008.1
20260506201648 62 326 6.1 9.6 0.00 0.00 0.00 96 1008.1
20260506201527 62 318 5.2 9.6 0.00 0.00 0.00 96 1008.1
20260506201424 62 333 6.1 10.4 0.00 0.00 0.00 96 1008.1
20260506201343 62 323 4.3 10.4 0.00 0.00 0.00 96 1008.6
20260506201241 62 325 3.5 10.4 0.00 0.00 0.00 96 1008.6
20260506201141 62 320 2.6 10.4 0.00 0.00 0.00 96 1008.6
20260506201040 62 322 2.6 10.4 0.00 0.00 0.00 96 1008.6
20260506200923 62 319 3.5 10.4 0.00 0.00 0.00 96 1008.6
20260506200843 62 306 4.3 10.4 0.00 0.00 0.00 96 1008.6
20260506200741 62 315 3.5 10.4 0.00 0.00 0.00 96 1008.6
20260506200659 62 312 6.1 10.4 0.00 0.00 0.00 96 1008.6
20260506200537 62 320 6.1 10.4 0.00 0.00 0.00 96 1008.6
20260506200435 62 312 5.2 10.4 0.00 0.00 0.00 96 1008.6
20260506200333 62 328 4.3 7.0 0.00 0.00 0.00 96 1008.6
20260506200302 62 316 6.1 7.0 0.00 0.00 0.00 96 1008.6
20260506200152 62 320 6.1 7.0 0.00 0.00 0.00 96 1008.6
20260506200035 62 322 4.3 7.0 0.00 0.00 0.00 96 1008.6
20260506195933 62 316 1.7 7.0 0.00 0.00 0.00 96 1008.6
20260506195851 62 319 2.6 7.0 0.00 0.00 0.00 96 1008.9
20260506195729 62 319 1.7 7.0 0.00 0.00 0.00 95 1008.9
20260506195648 62 322 1.7 7.0 0.00 0.00 0.00 95 1008.9
20260506195525 62 304 1.7 7.0 0.00 0.00 0.00 95 1008.9
20260506195424 62 305 5.2 7.0 0.00 0.00 0.00 95 1008.9
20260506195324 62 325 2.6 6.1 0.00 0.00 0.00 95 1008.9
20260506195227 62 291 2.6 8.7 0.00 0.00 0.00 95 1008.9
20260506195126 62 306 2.6 8.7 0.00 0.00 0.00 95 1008.9
20260506195024 62 284 3.5 8.7 0.00 0.00 0.00 95 1008.9
20260506194942 62 325 2.6 8.7 0.00 0.00 0.00 95 1008.9
20260506194841 62 318 1.7 9.6 0.00 0.00 0.00 95 1008.9
20260506194740 62 312 2.6 9.6 0.00 0.00 0.00 95 1008.9
20260506194709 62 313 1.7 9.6 0.00 0.00 0.00 95 1008.9
20260506194546 62 305 4.3 9.6 0.00 0.00 0.00 95 1008.9
20260506194428 62 318 5.2 9.6 0.00 0.00 0.00 95 1008.9
20260506194325 62 325 4.3 9.6 0.00 0.00 0.00 95 1009.2
20260506194243 62 306 3.5 9.6 0.00 0.00 0.00 95 1009.2
20260506194143 62 318 4.3 9.6 0.00 0.00 0.00 95 1009.2
20260506194041 62 322 5.2 9.6 0.00 0.00 0.00 95 1009.2
20260506193939 62 316 4.3 9.6 0.00 0.00 0.00 95 1009.2
20260506193839 62 312 4.3 9.6 0.00 0.00 0.00 95 1009.2
20260506193800 62 277 3.5 9.6 0.00 0.00 0.00 95 1009.2
20260506193658 62 299 2.6 13.0 0.00 0.00 0.00 95 1009.2
20260506193535 62 316 2.6 13.0 0.00 0.00 0.00 95 1009.2
20260506193434 62 298 2.6 13.0 0.00 0.00 0.00 95 1009.2
20260506193332 62 316 0.9 13.0 0.00 0.00 0.00 95 1009.2
20260506193243 62 309 5.2 13.0 0.00 0.00 0.00 95 1009.2
20260506193152 62 306 4.3 13.0 0.00 0.00 0.00 94 1009.2
20260506193028 62 311 4.3 13.0 0.00 0.00 0.00 94 1009.2
20260506192951 62 308 3.5 13.0 0.00 0.00 0.00 94 1009.2
20260506192828 62 326 5.2 13.0 0.00 0.00 0.00 94 1009.7
20260506192727 62 315 6.1 10.4 0.00 0.00 0.00 94 1009.7
20260506192626 62 302 6.1 10.4 0.00 0.00 0.00 94 1009.7
20260506192524 62 306 5.2 9.6 0.00 0.00 0.00 94 1009.7
20260506192442 62 318 6.1 9.6 0.00 0.00 0.00 94 1009.7
20260506192341 62 302 4.3 9.6 0.00 0.00 0.00 94 1009.7
20260506192244 62 318 4.3 12.2 0.00 0.00 0.00 94 1009.7
20260506192203 62 304 5.2 12.2 0.00 0.00 0.00 94 1009.7
20260506192104 62 306 6.1 12.2 0.00 0.00 0.00 94 1009.7
20260506191940 62 311 5.2 12.2 0.00 0.00 0.00 94 1009.7
20260506191839 62 304 3.5 12.2 0.00 0.00 0.00 94 1009.7
20260506191738 62 305 6.1 12.2 0.00 0.00 0.00 94 1009.7
20260506191707 62 315 2.6 12.2 0.00 0.00 0.00 94 1009.7
20260506191524 62 328 4.3 12.2 0.00 0.00 0.00 94 1009.7
20260506191425 62 328 7.8 12.2 0.00 0.00 0.00 93 1009.7
20260506191343 62 313 7.0 13.9 0.00 0.00 0.00 93 1009.7
20260506191242 62 304 3.5 17.4 0.00 0.00 0.00 93 1009.7
20260506191141 62 302 2.6 17.4 0.00 0.00 0.00 93 1009.7
20260506191100 62 320 6.1 17.4 0.00 0.00 0.00 93 1009.7
20260506190938 62 318 6.1 17.4 0.00 0.00 0.00 93 1009.7
20260506190836 62 319 4.3 17.4 0.00 0.00 0.00 93 1009.7
20260506190735 62 325 7.0 17.4 0.00 0.00 0.00 93 1009.7
20260506190638 62 313 6.1 17.4 0.00 0.00 0.00 93 1009.7
20260506190559 62 318 7.0 17.4 0.00 0.00 0.00 93 1009.7
20260506190457 62 296 7.8 17.4 0.00 0.00 0.00 93 1009.7
20260506190334 62 328 7.0 17.4 0.00 0.00 0.00 93 1009.7
20260506190253 62 330 3.5 13.9 0.00 0.00 0.00 93 1009.7
20260506190223 62 329 2.6 13.9 0.00 0.00 0.00 93 1009.7
20260506190039 62 329 3.5 13.9 0.00 0.00 0.00 93 1009.7
20260506185937 62 313 2.6 17.4 0.00 0.00 0.00 93 1009.7
20260506185840 62 318 4.3 17.4 0.00 0.00 0.00 93 1009.5
20260506185738 62 322 6.1 17.4 0.00 0.00 0.00 93 1009.5
20260506185636 62 329 7.0 17.4 0.00 0.00 0.00 93 1009.5
20260506185555 62 329 7.8 17.4 0.00 0.00 0.00 93 1009.5
20260506185432 62 311 4.3 17.4 0.00 0.00 0.00 93 1009.5
20260506185330 62 330 4.3 17.4 0.00 0.00 0.00 93 1009.5
20260506185229 62 305 7.0 17.4 0.00 0.00 0.00 93 1009.5
20260506185136 62 322 8.7 17.4 0.00 0.00 0.00 93 1009.5
20260506185034 62 329 7.8 11.3 0.00 0.00 0.00 93 1009.5
20260506184932 62 325 8.7 11.3 0.00 0.00 0.00 93 1009.5
20260506184850 62 326 6.1 9.6 0.00 0.00 0.00 93 1009.5
20260506184748 62 322 4.3 9.6 0.00 0.00 0.00 93 1009.5
20260506184717 62 326 5.2 9.6 0.00 0.00 0.00 93 1009.5
20260506184537 62 312 5.2 7.8 0.00 0.00 0.00 93 1009.5
20260506184456 62 319 6.1 7.8 0.00 0.00 0.00 93 1009.5
20260506184333 62 328 5.2 7.8 0.00 0.00 0.00 93 1009.8
20260506184236 62 329 3.5 8.7 0.00 0.00 0.00 93 1009.8
20260506184133 62 326 1.7 9.6 0.00 0.00 0.00 93 1009.8
20260506184030 62 323 2.6 9.6 0.00 0.00 0.00 93 1009.8
20260506183929 62 329 5.2 9.6 0.00 0.00 0.00 93 1009.8
20260506183827 62 329 5.2 9.6 0.00 0.00 0.00 93 1009.8
20260506183726 62 326 6.1 9.6 0.00 0.00 0.00 93 1009.8
20260506183629 62 328 5.2 9.6 0.00 0.00 0.00 92 1009.8
20260506183531 62 328 3.5 9.6 0.00 0.00 0.00 93 1009.8
20260506183448 62 329 5.2 9.6 0.00 0.00 0.00 93 1009.8
20260506183326 62 328 7.8 9.6 0.00 0.00 0.00 93 1009.8
20260506183245 62 330 4.3 9.6 0.00 0.00 0.00 93 1009.8
20260506183217 62 325 1.7 9.6 0.00 0.00 0.00 93 1009.8
20260506183034 62 329 3.5 9.6 0.00 0.00 0.00 92 1009.8
20260506182932 62 326 3.5 12.2 0.00 0.00 0.00 92 1009.8
20260506182834 62 330 1.7 12.2 0.00 0.00 0.00 92 1010.6
20260506182734 62 323 4.3 12.2 0.00 0.00 0.00 92 1010.6
20260506182652 62 285 2.6 13.9 0.00 0.00 0.00 92 1010.6
20260506182530 62 323 4.3 13.9 0.00 0.00 0.00 92 1010.6
20260506182450 62 319 3.5 13.9 0.00 0.00 0.00 92 1010.6
20260506182327 62 326 4.3 13.9 0.00 0.00 0.00 92 1010.6
20260506182226 62 330 5.2 14.8 0.00 0.00 0.00 92 1010.6
20260506182124 62 328 7.8 14.8 0.00 0.00 0.00 92 1010.6
20260506182026 63 330 7.0 14.8 0.00 0.00 0.00 92 1010.6
20260506181946 63 322 5.2 14.8 0.00 0.00 0.00 92 1010.6
20260506181843 63 318 6.1 14.8 0.00 0.00 0.00 92 1010.6
20260506181741 63 320 6.1 14.8 0.00 0.00 0.00 92 1010.6
20260506181711 63 294 7.0 14.8 0.00 0.00 0.00 92 1010.6
20260506181528 63 328 10.4 14.8 0.00 0.00 0.00 92 1010.6
20260506181446 63 295 11.3 14.8 0.00 0.00 0.00 92 1010.6
20260506181405 63 311 8.7 14.8 0.00 0.00 0.00 92 1010.6
20260506181302 63 325 5.2 14.8 0.00 0.00 0.00 92 1010.6
20260506181145 63 312 7.8 14.8 0.00 0.00 0.00 92 1010.6
20260506181022 63 318 7.8 14.8 0.00 0.00 0.00 92 1010.6
20260506180944 63 328 5.2 14.8 0.00 0.00 0.00 92 1010.6
20260506180842 63 326 5.2 14.8 0.00 0.00 0.00 92 1010.6
20260506180740 63 309 7.0 14.8 0.00 0.00 0.00 92 1010.6
20260506180638 63 319 6.1 10.4 0.00 0.00 0.00 92 1010.6
20260506180537 63 329 3.5 10.4 0.00 0.00 0.00 92 1010.6
20260506180436 63 323 5.2 10.4 0.00 0.00 0.00 92 1010.6
20260506180339 63 328 6.1 12.2 0.00 0.00 0.00 92 1010.6
20260506180238 63 326 2.6 13.9 0.00 0.00 0.00 92 1010.6
20260506180210 64 319 3.5 13.9 0.00 0.00 0.00 92 1010.6
20260506180026 64 299 3.5 17.4 0.00 0.00 0.00 92 1010.6
20260506175943 64 318 4.3 17.4 0.00 0.00 0.00 92 1010.6
20260506175841 64 328 4.3 17.4 0.00 0.00 0.00 92 1010.6
20260506175759 64 326 5.2 17.4 0.00 0.00 0.00 92 1010.6
20260506175655 64 329 6.1 17.4 0.00 0.00 0.00 92 1010.6
20260506175537 64 325 6.1 17.4 0.00 0.00 0.00 92 1010.6
20260506175435 64 326 10.4 17.4 0.00 0.00 0.00 92 1010.6
20260506175333 64 289 3.5 17.4 0.00 0.00 0.00 92 1010.6
20260506175231 64 329 8.7 17.4 0.00 0.00 0.00 92 1010.6
20260506175131 64 325 6.1 9.6 0.00 0.00 0.00 92 1010.6
20260506175029 64 329 3.5 9.6 0.00 0.00 0.00 92 1010.6
20260506174930 64 328 4.3 10.4 0.00 0.00 0.00 92 1010.6
20260506174833 64 329 6.1 11.3 0.00 0.00 0.00 92 1010.6
20260506174743 64 325 3.5 11.3 0.00 0.00 0.00 92 1010.6
20260506174651 64 316 3.5 11.3 0.00 0.00 0.00 92 1010.6
20260506174529 64 323 4.3 13.9 0.00 0.00 0.00 92 1010.6
20260506174428 64 312 3.5 17.4 0.00 0.00 0.00 92 1010.6
20260506174346 65 313 1.7 17.4 0.00 0.00 0.00 92 1010.9
20260506174243 65 328 3.5 18.2 0.00 0.00 0.00 92 1010.9
20260506174141 65 312 7.0 18.2 0.00 0.00 0.00 92 1010.9
20260506174104 65 322 7.0 18.2 0.00 0.00 0.00 92 1010.9
20260506173941 65 318 6.1 18.2 0.00 0.00 0.00 92 1010.9
20260506173840 65 323 5.2 18.2 0.00 0.00 0.00 92 1010.9
20260506173757 65 335 7.8 18.2 0.00 0.00 0.00 92 1010.9
20260506173635 66 336 10.4 18.2 0.00 0.00 0.00 93 1010.9
20260506173532 66 313 8.7 18.2 0.00 0.00 0.00 93 1010.9
20260506173431 66 312 10.4 18.2 0.00 0.00 0.00 93 1010.9
20260506173333 66 315 3.5 11.3 0.00 0.00 0.00 93 1010.9
20260506173241 66 344 5.2 10.4 0.00 0.00 0.00 93 1010.9
20260506173151 66 329 4.3 10.4 0.00 0.00 0.00 93 1010.9
20260506173032 66 323 5.2 10.4 0.00 0.00 0.00 93 1010.9
20260506172929 66 313 2.6 10.4 0.00 0.00 0.00 93 1010.9
20260506172827 66 328 3.5 10.4 0.00 0.00 0.00 93 1010.5
20260506172747 66 304 2.6 10.4 0.00 0.00 0.00 93 1010.5
20260506172706 66 304 4.3 15.6 0.00 0.00 0.00 93 1010.5
20260506172603 66 294 4.3 15.6 0.00 0.00 0.00 93 1010.5
20260506172445 66 302 5.2 15.6 0.00 0.00 0.00 93 1010.5
20260506172342 66 308 6.1 15.6 0.00 0.00 0.00 93 1010.5
20260506172240 66 311 4.3 15.6 0.00 0.00 0.00 93 1010.5
20260506172138 66 328 2.6 15.6 0.00 0.00 0.00 93 1010.5
20260506172037 66 320 4.3 15.6 0.00 0.00 0.00 93 1010.5
20260506171954 66 302 6.1 15.6 0.00 0.00 0.00 93 1010.5
20260506171852 66 329 11.3 15.6 0.00 0.00 0.00 93 1010.5
20260506171741 66 312 5.2 15.6 0.00 0.00 0.00 93 1010.5
20260506171650 66 322 4.3 15.6 0.00 0.00 0.00 92 1010.5
20260506171531 66 326 5.2 15.6 0.00 0.00 0.00 92 1010.5
20260506171450 66 323 5.2 15.6 0.00 0.00 0.00 92 1010.5
20260506171328 66 315 7.0 15.6 0.00 0.00 0.00 92 1010.4
20260506171246 66 312 7.8 15.6 0.00 0.00 0.00 92 1010.4
20260506171143 66 320 7.0 15.6 0.00 0.00 0.00 92 1010.4
20260506171041 66 296 7.8 15.6 0.00 0.00 0.00 92 1010.4
20260506170940 66 313 10.4 18.2 0.00 0.00 0.00 92 1010.4
20260506170859 66 313 7.8 18.2 0.00 0.00 0.00 92 1010.4
20260506170737 66 299 7.8 18.2 0.00 0.00 0.00 92 1010.4
20260506170640 66 328 7.0 18.2 0.00 0.00 0.00 92 1010.4
20260506170537 66 329 6.1 18.2 0.00 0.00 0.00 92 1010.4
20260506170437 66 329 7.8 18.2 0.00 0.00 0.00 92 1010.4
20260506170334 66 313 7.0 18.2 0.00 0.00 0.00 92 1010.4
20260506170303 66 325 7.8 18.2 0.00 0.00 0.00 92 1010.4
20260506170151 66 280 12.2 18.2 0.00 0.00 0.00 92 1010.4
20260506170029 66 326 12.2 18.2 0.00 0.00 0.00 92 1010.4
20260506165932 66 319 11.3 18.2 0.00 0.00 0.00 92 1010.4
20260506165850 66 313 7.8 18.2 0.00 0.00 0.00 92 1010.2
20260506165729 66 326 13.0 18.2 0.00 0.00 0.00 92 1010.2
20260506165631 66 291 10.4 17.4 0.00 0.00 0.00 92 1010.2
20260506165530 66 312 9.6 17.4 0.00 0.00 0.00 92 1010.2
20260506165448 66 322 7.8 17.4 0.00 0.00 0.00 92 1010.2
20260506165406 66 319 8.7 18.2 0.00 0.00 0.00 92 1010.2
20260506165305 66 282 8.7 18.2 0.00 0.00 0.00 92 1010.2
20260506165124 66 332 11.3 18.2 0.00 0.00 0.00 92 1010.2
20260506165043 66 315 8.7 18.2 0.00 0.00 0.00 92 1010.2
20260506165001 66 325 7.8 18.2 0.00 0.00 0.00 92 1010.2
20260506164858 66 291 10.4 18.2 0.00 0.00 0.00 92 1010.2
20260506164755 66 323 14.8 18.2 0.00 0.00 0.00 92 1010.2
20260506164704 66 319 9.6 18.2 0.00 0.00 0.00 92 1010.2
20260506164541 66 315 10.4 18.2 0.00 0.00 0.00 92 1010.2
20260506164439 66 247 7.0 13.9 0.00 0.00 0.00 93 1010.2
20260506164338 66 298 7.8 13.9 0.00 0.00 0.00 92 1009.9
20260506164241 66 316 10.4 19.1 0.00 0.00 0.00 92 1009.9
20260506164139 66 315 6.1 19.1 0.00 0.00 0.00 92 1009.9
20260506164038 66 328 6.1 19.1 0.00 0.00 0.00 92 1009.9
20260506163935 66 319 8.7 19.1 0.00 0.00 0.00 92 1009.9
20260506163854 66 328 7.8 19.1 0.00 0.00 0.00 92 1009.9
20260506163752 66 322 4.3 19.1 0.00 0.00 0.00 92 1009.9
20260506163631 66 316 8.7 19.1 0.00 0.00 0.00 92 1009.9
20260506163530 66 315 7.8 19.1 0.00 0.00 0.00 92 1009.9
20260506163452 66 319 7.8 19.1 0.00 0.00 0.00 92 1009.9
20260506163329 66 316 11.3 18.2 0.00 0.00 0.00 92 1009.9
20260506163228 66 325 11.3 18.2 0.00 0.00 0.00 92 1009.9
20260506163158 66 254 9.6 18.2 0.00 0.00 0.00 92 1009.9
20260506163035 66 305 12.2 18.2 0.00 0.00 0.00 93 1009.9
20260506162934 66 323 11.3 16.5 0.00 0.00 0.00 92 1009.9
20260506162832 66 305 9.6 16.5 0.00 0.00 0.00 93 1009.9
20260506162730 66 298 5.2 18.2 0.00 0.00 0.00 93 1009.9
20260506162634 66 291 5.2 18.2 0.00 0.00 0.00 93 1009.9
20260506162535 66 312 9.6 18.2 0.00 0.00 0.00 93 1009.9
20260506162454 66 313 9.6 18.2 0.00 0.00 0.00 93 1009.9
20260506162331 66 311 3.5 18.2 0.00 0.00 0.00 93 1009.9
20260506162229 66 272 3.5 18.2 0.00 0.00 0.00 93 1009.9
20260506162129 66 318 7.8 18.2 0.00 0.00 0.00 93 1009.9
20260506162048 66 326 6.1 18.2 0.00 0.00 0.00 93 1009.9
20260506161930 66 316 12.2 18.2 0.00 0.00 0.00 93 1009.9
20260506161847 66 319 9.6 17.4 0.00 0.00 0.00 93 1009.9
20260506161726 66 316 11.3 17.4 0.00 0.00 0.00 93 1009.9
20260506161659 66 268 11.3 17.4 0.00 0.00 0.00 93 1009.9
20260506161537 66 280 13.9 17.4 0.00 0.00 0.00 93 1009.9
20260506161435 66 287 8.7 21.7 0.00 0.00 0.00 93 1009.9
20260506161335 66 322 7.8 21.7 0.00 0.00 0.00 93 1009.9
20260506161233 66 318 8.7 21.7 0.00 0.00 0.00 93 1009.9
20260506161134 66 323 8.7 21.7 0.00 0.00 0.00 93 1009.9
20260506161032 66 296 11.3 21.7 0.00 0.00 0.00 93 1009.9
20260506160931 66 323 11.3 21.7 0.00 0.00 0.00 93 1009.9
20260506160827 66 322 11.3 21.7 0.00 0.00 0.00 93 1009.9
20260506160746 66 320 7.0 21.7 0.00 0.00 0.00 93 1009.9
20260506160624 66 294 13.9 21.7 0.00 0.00 0.00 93 1009.9
20260506160524 66 325 10.4 19.1 0.00 0.00 0.00 93 1009.9
20260506160427 66 329 11.3 19.1 0.00 0.00 0.00 93 1009.9
20260506160326 66 318 6.1 19.1 0.00 0.00 0.00 93 1009.9
20260506160225 66 288 8.7 19.1 0.00 0.00 0.00 93 1009.9
20260506160157 66 316 7.0 19.1 0.00 0.00 0.00 93 1009.9
20260506160037 66 326 6.1 19.1 0.00 0.00 0.00 93 1009.9
20260506155935 66 298 5.2 19.1 0.00 0.00 0.00 93 1009.9
20260506155833 66 280 9.6 22.6 0.00 0.00 0.00 93 1009.6
20260506155732 66 323 12.2 26.9 0.00 0.00 0.00 93 1009.6
20260506155655 66 328 14.8 26.9 0.00 0.00 0.00 93 1009.6
20260506155532 66 302 9.6 26.9 0.00 0.00 0.00 93 1009.6
20260506155431 66 306 11.3 26.9 0.00 0.00 0.00 93 1009.6
20260506155329 66 319 11.3 26.9 0.00 0.00 0.00 93 1009.6
20260506155231 66 319 12.2 26.9 0.00 0.00 0.00 93 1009.6
20260506155129 66 291 13.0 26.9 0.00 0.00 0.00 93 1009.6
20260506155048 66 315 15.6 26.9 0.00 0.00 0.00 93 1009.6
20260506154928 66 302 13.0 26.9 0.00 0.00 0.00 93 1009.6
20260506154828 66 315 10.4 21.7 0.00 0.00 0.00 93 1009.6
20260506154738 66 326 10.4 21.7 0.00 0.00 0.00 93 1009.6
20260506154648 66 322 10.4 23.5 0.00 0.00 0.00 93 1009.6
20260506154525 66 316 11.3 23.5 0.00 0.00 0.00 93 1009.6
20260506154445 66 323 11.3 23.5 0.00 0.00 0.00 93 1009.6
20260506154343 66 309 13.0 23.5 0.00 0.00 0.00 93 1009.7
20260506154300 66 322 11.3 23.5 0.00 0.00 0.00 93 1009.7
20260506154138 66 318 12.2 25.2 0.00 0.00 0.00 93 1009.7
20260506154100 66 277 12.2 25.2 0.00 0.00 0.00 93 1009.7
20260506153958 66 299 11.3 25.2 0.00 0.00 0.00 93 1009.7
20260506153836 66 312 10.4 25.2 0.00 0.00 0.00 93 1009.7
20260506153755 66 294 13.9 25.2 0.00 0.00 0.00 93 1009.7
20260506153633 66 326 12.2 25.2 0.00 0.00 0.00 93 1009.7
20260506153532 66 319 15.6 25.2 0.00 0.00 0.00 93 1009.7
20260506153449 66 312 12.2 25.2 0.00 0.00 0.00 93 1009.7
20260506153347 66 250 14.8 25.2 0.00 0.00 0.00 93 1009.7
20260506153245 66 328 8.7 21.7 0.00 0.00 0.00 93 1009.7
20260506153216 66 271 7.8 23.5 0.00 0.00 0.00 93 1009.7
20260506153037 66 330 8.7 23.5 0.00 0.00 0.00 93 1009.7
20260506152935 66 301 10.4 23.5 0.00 0.00 0.00 93 1009.7
20260506152835 66 311 9.6 23.5 0.00 0.00 0.00 93 1009.5
20260506152732 66 320 12.2 23.5 0.00 0.00 0.00 93 1009.5
20260506152630 65 329 7.8 23.5 0.00 0.00 0.00 93 1009.5
20260506152527 65 316 12.2 23.5 0.00 0.00 0.00 93 1009.5
20260506152446 65 313 10.4 23.5 0.00 0.00 0.00 93 1009.5
20260506152343 65 320 11.3 23.5 0.00 0.00 0.00 93 1009.5
20260506152225 65 298 13.9 23.5 0.00 0.00 0.00 93 1009.5
20260506152124 65 330 16.5 23.5 0.00 0.00 0.00 93 1009.5
20260506152024 65 243 12.2 19.1 0.00 0.00 0.00 93 1009.5
20260506151942 65 296 12.2 19.1 0.00 0.00 0.00 93 1009.5
20260506151900 65 281 9.6 19.1 0.00 0.00 0.00 93 1009.5
20260506151737 65 241 7.8 19.1 0.00 0.00 0.00 93 1009.5
20260506151706 65 302 7.8 18.2 0.00 0.00 0.00 93 1009.5
20260506151603 65 301 10.4 19.1 0.00 0.00 0.00 93 1009.5
20260506151425 65 313 12.2 19.1 0.00 0.00 0.00 93 1009.5
20260506151324 65 270 8.7 20.9 0.00 0.00 0.00 93 1010.1
20260506151243 65 308 11.3 20.9 0.00 0.00 0.00 93 1010.1
20260506151141 65 304 10.4 20.9 0.00 0.00 0.00 93 1010.1
20260506151039 65 289 11.3 20.9 0.00 0.00 0.00 93 1010.1
20260506150940 65 277 10.4 20.9 0.00 0.00 0.00 93 1010.1
20260506150838 65 330 9.6 20.9 0.00 0.00 0.00 93 1010.1
20260506150800 65 325 10.4 20.9 0.00 0.00 0.00 93 1010.1
20260506150637 65 292 9.6 20.9 0.00 0.00 0.00 93 1010.1
20260506150535 65 308 11.3 20.9 0.00 0.00 0.00 93 1010.1
20260506150437 65 306 9.6 20.9 0.00 0.00 0.00 93 1010.1
20260506150335 65 320 7.0 20.9 0.00 0.00 0.00 93 1010.1
20260506150234 65 298 13.0 20.9 0.00 0.00 0.00 93 1010.1
20260506150204 65 308 13.9 20.9 0.00 0.00 0.00 93 1010.1
20260506150025 65 319 14.8 20.9 0.00 0.00 0.00 93 1010.1
20260506145924 65 241 12.2 20.9 0.00 0.00 0.00 93 1010.1
20260506145842 65 270 11.3 18.2 0.00 0.00 0.00 93 1010.1
20260506145740 65 295 9.6 19.1 0.00 0.00 0.00 93 1010.1
20260506145639 65 311 8.7 19.1 0.00 0.00 0.00 93 1010.1
20260506145537 65 313 7.0 19.1 0.00 0.00 0.00 93 1010.1
20260506145435 65 319 9.6 19.1 0.00 0.00 0.00 93 1010.1
20260506145337 65 289 10.4 19.1 0.00 0.00 0.00 93 1010.1
20260506145236 65 253 7.0 19.1 0.00 0.00 0.00 93 1010.1
20260506145135 65 294 6.1 19.1 0.00 0.00 0.00 93 1010.1
20260506145033 65 325 9.6 19.1 0.00 0.00 0.00 93 1010.1
20260506144952 65 304 7.8 19.1 0.00 0.00 0.00 93 1010.1
20260506144829 65 277 6.1 22.6 0.00 0.00 0.00 93 1010.1
20260506144759 65 322 13.9 22.6 0.00 0.00 0.00 93 1010.1
20260506144647 65 313 7.0 22.6 0.00 0.00 0.00 93 1010.1
20260506144549 65 312 8.7 22.6 0.00 0.00 0.00 93 1010.1
20260506144447 65 318 7.0 22.6 0.00 0.00 0.00 93 1010.1
20260506144343 65 288 11.3 22.6 0.00 0.00 0.00 93 1010.3
20260506144240 65 322 11.3 22.6 0.00 0.00 0.00 93 1010.3
20260506144140 65 311 10.4 22.6 0.00 0.00 0.00 93 1010.3
20260506144040 65 330 11.3 22.6 0.00 0.00 0.00 93 1010.3
20260506143938 65 257 7.8 19.1 0.00 0.00 0.00 93 1010.3
20260506143837 65 316 9.6 19.1 0.00 0.00 0.00 93 1010.3
20260506143739 65 280 11.3 19.1 0.00 0.00 0.00 93 1010.3
20260506143657 65 271 9.6 19.1 0.00 0.00 0.00 93 1010.3
20260506143535 65 326 8.7 17.4 0.00 0.00 0.00 93 1010.3
20260506143433 65 306 6.1 17.4 0.00 0.00 0.00 93 1010.3
20260506143352 65 244 9.6 17.4 0.00 0.00 0.00 92 1010.3
20260506143240 65 333 7.8 17.4 0.00 0.00 0.00 92 1010.3
20260506143150 64 318 8.7 17.4 0.00 0.00 0.00 92 1010.3
20260506143027 64 311 11.3 17.4 0.00 0.00 0.00 92 1010.3
20260506142930 64 319 7.8 14.8 0.00 0.00 0.00 92 1010.3
20260506142848 64 308 8.7 14.8 0.00 0.00 0.00 92 1010.1
20260506142726 64 326 9.6 14.8 0.00 0.00 0.00 92 1010.1
20260506142624 64 313 7.0 13.9 0.00 0.00 0.00 92 1010.1
20260506142543 64 285 8.7 13.9 0.00 0.00 0.00 92 1010.1
20260506142440 64 288 9.6 13.9 0.00 0.00 0.00 92 1010.1
20260506142359 64 291 8.7 13.9 0.00 0.00 0.00 92 1010.1
20260506142236 64 328 7.0 13.9 0.00 0.00 0.00 92 1010.1
20260506142137 64 312 7.0 13.9 0.00 0.00 0.00 92 1010.1
20260506142056 64 305 8.7 13.9 0.00 0.00 0.00 92 1010.1
20260506141933 64 272 8.7 13.9 0.00 0.00 0.00 92 1010.1
20260506141831 64 316 7.8 13.9 0.00 0.00 0.00 92 1010.1
20260506141750 64 328 7.0 13.9 0.00 0.00 0.00 92 1010.1
20260506141659 64 315 6.1 13.9 0.00 0.00 0.00 92 1010.1
20260506141536 64 322 7.8 13.9 0.00 0.00 0.00 92 1010.1
20260506141435 64 294 6.1 13.9 0.00 0.00 0.00 92 1010.1
20260506141334 64 325 7.0 13.9 0.00 0.00 0.00 92 1009.9
20260506141240 64 323 7.0 13.9 0.00 0.00 0.00 92 1009.9
20260506141138 64 313 7.0 13.9 0.00 0.00 0.00 92 1009.9
20260506141036 64 319 7.0 13.9 0.00 0.00 0.00 92 1009.9
20260506140933 64 323 7.8 13.9 0.00 0.00 0.00 92 1009.9
20260506140833 64 281 7.0 13.9 0.00 0.00 0.00 92 1009.9
20260506140753 64 325 7.8 13.9 0.00 0.00 0.00 92 1009.9
20260506140631 64 326 7.8 13.9 0.00 0.00 0.00 92 1009.9
20260506140533 64 308 7.8 13.9 0.00 0.00 0.00 92 1009.9
20260506140432 64 291 7.8 13.9 0.00 0.00 0.00 92 1009.9
20260506140352 64 287 7.8 13.9 0.00 0.00 0.00 92 1009.9
20260506140230 64 304 4.3 13.9 0.00 0.00 0.00 92 1009.9
20260506140201 64 254 5.2 13.9 0.00 0.00 0.00 92 1009.9
20260506140058 64 320 4.3 13.9 0.00 0.00 0.00 92 1009.9
20260506135935 64 311 3.5 9.6 0.00 0.00 0.00 92 1009.9
20260506135833 64 275 5.2 11.3 0.00 0.00 0.00 92 1009.6
20260506135735 64 284 6.1 11.3 0.00 0.00 0.00 92 1009.6
20260506135634 64 313 5.2 13.9 0.00 0.00 0.00 92 1009.6
20260506135534 64 277 5.2 13.9 0.00 0.00 0.00 92 1009.6
20260506135454 64 267 3.5 13.9 0.00 0.00 0.00 92 1009.6
20260506135330 64 268 4.3 13.9 0.00 0.00 0.00 92 1009.6
20260506135230 64 313 5.2 13.9 0.00 0.00 0.00 92 1009.6